Wetterdaten: Mittwoch, 11.01.2023
Datum Zeit Temp. Aussen Temp. o. S. Temp +5cm Feuchte Auss Luftdruck Regen Sonnenschein Regendauer Solar Windben Empfang
11.01.2023 00:00 7,3 C 6,7 C 3,9 C 96 % 1010,9 hPa 0,0 l/m 0 min 0 min 0 W/m 6,4 km/h (2 Bft) 95,74 %
11.01.2023 00:02 7,3 C 6,7 C 3,9 C 96 % 1010,9 hPa 0,0 l/m 0 min 0 min 0 W/m 6,4 km/h (2 Bft) 97,67 %
11.01.2023 00:04 7,3 C 6,7 C 3,9 C 96 % 1010,9 hPa 0,0 l/m 0 min 0 min 0 W/m 12,9 km/h (3 Bft) 95,74 %
11.01.2023 00:07 7,4 C 6,7 C 3,9 C 96 % 1010,8 hPa 0,0 l/m 0 min 0 min 0 W/m 12,9 km/h (3 Bft) 97,14 %
11.01.2023 00:08 7,4 C 6,7 C 3,9 C 96 % 1010,8 hPa 0,0 l/m 0 min 0 min 0 W/m 6,4 km/h (2 Bft) 100,00 %
11.01.2023 00:12 7,4 C 6,7 C 3,9 C 97 % 1010,8 hPa 0,0 l/m 0 min 0 min 0 W/m 6,4 km/h (2 Bft) 91,84 %
11.01.2023 00:14 7,4 C 6,7 C 3,9 C 97 % 1010,7 hPa 0,0 l/m 0 min 0 min 0 W/m 6,4 km/h (2 Bft) 100,00 %
11.01.2023 00:16 7,4 C 6,7 C 3,9 C 97 % 1010,7 hPa 0,0 l/m 0 min 0 min 0 W/m 6,4 km/h (2 Bft) 97,83 %
11.01.2023 00:18 7,4 C 6,7 C 3,9 C 97 % 1010,7 hPa 0,0 l/m 0 min 0 min 0 W/m 6,4 km/h (2 Bft) 97,87 %
11.01.2023 00:20 7,4 C 6,7 C 3,9 C 97 % 1010,6 hPa 0,0 l/m 0 min 0 min 0 W/m 12,9 km/h (3 Bft) 100,00 %
11.01.2023 00:22 7,4 C 6,7 C 3,9 C 97 % 1010,6 hPa 0,0 l/m 0 min 0 min 0 W/m 6,4 km/h (2 Bft) 97,87 %
11.01.2023 00:24 7,4 C 6,7 C 3,9 C 97 % 1010,6 hPa 0,0 l/m 0 min 0 min 0 W/m 12,9 km/h (3 Bft) 95,74 %
11.01.2023 00:26 7,4 C 6,7 C 3,9 C 97 % 1010,6 hPa 0,0 l/m 0 min 0 min 0 W/m 6,4 km/h (2 Bft) 97,87 %
11.01.2023 00:28 7,4 C 6,7 C 3,9 C 97 % 1010,5 hPa 0,0 l/m 0 min 0 min 0 W/m 6,4 km/h (2 Bft) 97,83 %
11.01.2023 00:30 7,4 C 6,7 C 3,9 C 97 % 1010,5 hPa 0,0 l/m 0 min 0 min 0 W/m 6,4 km/h (2 Bft) 97,87 %
11.01.2023 00:32 7,4 C 6,7 C 3,9 C 97 % 1010,5 hPa 0,0 l/m 0 min 0 min 0 W/m 12,9 km/h (3 Bft) 97,87 %
11.01.2023 00:34 7,4 C 6,7 C 3,9 C 97 % 1010,4 hPa 0,0 l/m 0 min 0 min 0 W/m 12,9 km/h (3 Bft) 97,87 %
11.01.2023 00:36 7,4 C 7,2 C 3,9 C 97 % 1010,3 hPa 0,0 l/m 0 min 0 min 0 W/m 16,1 km/h (3 Bft) 95,74 %
11.01.2023 00:38 7,4 C 7,2 C 3,9 C 97 % 1010,3 hPa 0,0 l/m 0 min 0 min 0 W/m 12,9 km/h (3 Bft) 95,74 %
11.01.2023 00:40 7,5 C 7,2 C 3,9 C 97 % 1010,3 hPa 0,0 l/m 0 min 0 min 0 W/m 12,9 km/h (3 Bft) 97,87 %
11.01.2023 00:42 7,5 C 7,2 C 3,9 C 97 % 1010,3 hPa 0,0 l/m 0 min 0 min 0 W/m 6,4 km/h (2 Bft) 97,83 %
11.01.2023 00:44 7,5 C 7,2 C 3,9 C 97 % 1010,3 hPa 0,0 l/m 0 min 0 min 0 W/m 12,9 km/h (3 Bft) 95,74 %
11.01.2023 00:46 7,6 C 7,2 C 3,9 C 97 % 1010,2 hPa 0,0 l/m 0 min 0 min 0 W/m 12,9 km/h (3 Bft) 97,87 %
11.01.2023 00:48 7,6 C 7,2 C 3,9 C 97 % 1010,2 hPa 0,0 l/m 0 min 0 min 0 W/m 12,9 km/h (3 Bft) 97,87 %
11.01.2023 00:50 7,6 C 7,2 C 3,9 C 97 % 1010,2 hPa 0,0 l/m 0 min 0 min 0 W/m 12,9 km/h (3 Bft) 97,87 %
11.01.2023 00:52 7,6 C 7,2 C 3,9 C 97 % 1010,1 hPa 0,0 l/m 0 min 0 min 0 W/m 9,7 km/h (2 Bft) 93,62 %
11.01.2023 00:54 7,6 C 7,2 C 3,9 C 97 % 1010,1 hPa 0,0 l/m 0 min 0 min 0 W/m 6,4 km/h (2 Bft) 97,87 %
11.01.2023 00:56 7,6 C 7,2 C 3,9 C 97 % 1010,1 hPa 0,0 l/m 0 min 0 min 0 W/m 9,7 km/h (2 Bft) 100,00 %
11.01.2023 00:58 7,6 C 7,2 C 3,9 C 97 % 1010,2 hPa 0,0 l/m 0 min 0 min 0 W/m 12,9 km/h (3 Bft) 100,00 %
11.01.2023 01:00 7,7 C 7,2 C 3,9 C 97 % 1010,2 hPa 0,0 l/m 0 min 0 min 0 W/m 12,9 km/h (3 Bft) 100,00 %
11.01.2023 01:02 7,7 C 7,2 C 3,9 C 97 % 1010,1 hPa 0,0 l/m 0 min 0 min 0 W/m 9,7 km/h (2 Bft) 100,00 %
11.01.2023 01:04 7,7 C 7,2 C 3,9 C 97 % 1010,1 hPa 0,0 l/m 0 min 0 min 0 W/m 6,4 km/h (2 Bft) 100,00 %
11.01.2023 01:06 7,8 C 7,2 C 4,4 C 97 % 1010,1 hPa 0,0 l/m 0 min 0 min 0 W/m 16,1 km/h (3 Bft) 100,00 %
11.01.2023 01:08 7,8 C 7,2 C 4,4 C 97 % 1010,1 hPa 0,0 l/m 0 min 0 min 0 W/m 12,9 km/h (3 Bft) 100,00 %
11.01.2023 01:10 7,8 C 7,2 C 4,4 C 97 % 1010,1 hPa 0,0 l/m 0 min 0 min 0 W/m 12,9 km/h (3 Bft) 100,00 %
11.01.2023 01:12 7,8 C 7,2 C 4,4 C 97 % 1010,2 hPa 0,0 l/m 0 min 0 min 0 W/m 16,1 km/h (3 Bft) 100,00 %
11.01.2023 01:14 7,8 C 7,8 C 4,4 C 97 % 1010,2 hPa 0,0 l/m 0 min 0 min 0 W/m 9,7 km/h (2 Bft) 100,00 %
11.01.2023 01:16 7,9 C 7,8 C 4,4 C 97 % 1010,2 hPa 0,0 l/m 0 min 0 min 0 W/m 6,4 km/h (2 Bft) 100,00 %
11.01.2023 01:18 7,9 C 7,8 C 4,4 C 97 % 1010,1 hPa 0,0 l/m 0 min 0 min 0 W/m 9,7 km/h (2 Bft) 100,00 %
11.01.2023 01:20 7,9 C 7,8 C 4,4 C 97 % 1010,0 hPa 0,0 l/m 0 min 0 min 0 W/m 6,4 km/h (2 Bft) 47,37 %
11.01.2023 01:22 8,0 C 7,8 C 4,4 C 97 % 1010,0 hPa 0,0 l/m 0 min 0 min 0 W/m 12,9 km/h (3 Bft) 100,00 %
11.01.2023 01:24 8,1 C 7,8 C 4,4 C 97 % 1010,0 hPa 0,0 l/m 0 min 0 min 0 W/m 12,9 km/h (3 Bft) 95,74 %
11.01.2023 01:26 8,1 C 7,8 C 4,4 C 97 % 1010,0 hPa 0,0 l/m 0 min 0 min 0 W/m 9,7 km/h (2 Bft) 100,00 %
11.01.2023 01:28 8,1 C 7,8 C 4,4 C 97 % 1010,0 hPa 0,0 l/m 0 min 0 min 0 W/m 12,9 km/h (3 Bft) 100,00 %
11.01.2023 01:30 8,2 C 7,8 C 4,4 C 97 % 1009,9 hPa 0,0 l/m 0 min 0 min 0 W/m 6,4 km/h (2 Bft) 100,00 %
11.01.2023 01:32 8,2 C 7,8 C 4,4 C 97 % 1009,9 hPa 0,0 l/m 0 min 0 min 0 W/m 16,1 km/h (3 Bft) 100,00 %
11.01.2023 01:34 8,2 C 7,8 C 4,4 C 96 % 1009,9 hPa 0,0 l/m 0 min 0 min 0 W/m 19,3 km/h (3 Bft) 100,00 %
11.01.2023 01:36 8,2 C 7,8 C 4,4 C 96 % 1009,9 hPa 0,0 l/m 0 min 0 min 0 W/m 6,4 km/h (2 Bft) 100,00 %
11.01.2023 01:38 8,2 C 7,8 C 4,4 C 96 % 1009,9 hPa 0,0 l/m 0 min 0 min 0 W/m 12,9 km/h (3 Bft) 97,87 %
11.01.2023 01:40 8,2 C 7,8 C 4,4 C 96 % 1009,9 hPa 0,0 l/m 0 min 0 min 0 W/m 19,3 km/h (3 Bft) 97,87 %
11.01.2023 01:42 8,2 C 7,8 C 4,4 C 96 % 1009,8 hPa 0,0 l/m 0 min 0 min 0 W/m 12,9 km/h (3 Bft) 100,00 %
11.01.2023 01:44 8,2 C 7,8 C 4,4 C 96 % 1009,8 hPa 0,0 l/m 0 min 0 min 0 W/m 16,1 km/h (3 Bft) 100,00 %
11.01.2023 01:46 8,2 C 7,8 C 4,4 C 96 % 1009,8 hPa 0,0 l/m 0 min 0 min 0 W/m 16,1 km/h (3 Bft) 100,00 %
11.01.2023 01:48 8,2 C 7,8 C 4,4 C 96 % 1009,8 hPa 0,0 l/m 0 min 0 min 0 W/m 22,5 km/h (4 Bft) 97,87 %
11.01.2023 01:50 8,2 C 7,8 C 4,4 C 96 % 1009,7 hPa 0,0 l/m 0 min 0 min 0 W/m 12,9 km/h (3 Bft) 100,00 %
11.01.2023 01:52 8,2 C 7,8 C 4,4 C 96 % 1009,7 hPa 0,0 l/m 0 min 0 min 0 W/m 12,9 km/h (3 Bft) 98,00 %
11.01.2023 01:54 8,2 C 7,8 C 4,4 C 96 % 1009,7 hPa 0,0 l/m 0 min 0 min 0 W/m 16,1 km/h (3 Bft) 93,62 %
11.01.2023 01:56 8,2 C 7,8 C 4,4 C 96 % 1009,8 hPa 0,0 l/m 0 min 0 min 0 W/m 12,9 km/h (3 Bft) 97,87 %
11.01.2023 01:58 8,2 C 7,8 C 4,4 C 96 % 1009,8 hPa 0,0 l/m 0 min 0 min 0 W/m 22,5 km/h (4 Bft) 95,74 %
11.01.2023 02:00 8,2 C 7,8 C 4,4 C 96 % 1009,7 hPa 0,0 l/m 0 min 0 min 0 W/m 16,1 km/h (3 Bft) 93,62 %
11.01.2023 02:02 8,3 C 7,8 C 4,4 C 96 % 1009,7 hPa 0,0 l/m 0 min 0 min 0 W/m 22,5 km/h (4 Bft) 95,74 %
11.01.2023 02:04 8,3 C 7,8 C 4,4 C 96 % 1009,7 hPa 0,0 l/m 0 min 0 min 0 W/m 16,1 km/h (3 Bft) 95,65 %
11.01.2023 02:06 8,3 C 7,8 C 4,4 C 96 % 1009,6 hPa 0,0 l/m 0 min 0 min 0 W/m 19,3 km/h (3 Bft) 93,62 %
11.01.2023 02:08 8,3 C 7,8 C 4,4 C 96 % 1009,5 hPa 0,0 l/m 0 min 0 min 0 W/m 16,1 km/h (3 Bft) 97,87 %
11.01.2023 02:10 8,3 C 7,8 C 4,4 C 96 % 1009,5 hPa 0,0 l/m 0 min 0 min 0 W/m 12,9 km/h (3 Bft) 93,62 %
11.01.2023 02:12 8,3 C 7,8 C 4,4 C 96 % 1009,5 hPa 0,0 l/m 0 min 0 min 0 W/m 9,7 km/h (2 Bft) 95,74 %
11.01.2023 02:14 8,3 C 7,8 C 4,4 C 96 % 1009,5 hPa 0,0 l/m 0 min 0 min 0 W/m 22,5 km/h (4 Bft) 95,74 %
11.01.2023 02:16 8,4 C 7,8 C 4,4 C 96 % 1009,5 hPa 0,0 l/m 0 min 0 min 0 W/m 22,5 km/h (4 Bft) 95,65 %
11.01.2023 02:18 8,4 C 7,8 C 4,4 C 95 % 1009,5 hPa 0,0 l/m 0 min 0 min 0 W/m 12,9 km/h (3 Bft) 91,49 %
11.01.2023 02:20 8,4 C 7,8 C 4,4 C 95 % 1009,5 hPa 0,0 l/m 0 min 0 min 0 W/m 22,5 km/h (4 Bft) 93,62 %
11.01.2023 02:22 8,4 C 7,8 C 4,4 C 96 % 1009,4 hPa 0,0 l/m 0 min 0 min 0 W/m 12,9 km/h (3 Bft) 93,62 %
11.01.2023 02:24 8,5 C 7,8 C 4,4 C 96 % 1009,4 hPa 0,0 l/m 0 min 0 min 0 W/m 12,9 km/h (3 Bft) 91,49 %
11.01.2023 02:26 8,5 C 8,3 C 4,4 C 96 % 1009,4 hPa 0,0 l/m 0 min 0 min 0 W/m 9,7 km/h (2 Bft) 95,74 %
11.01.2023 02:28 8,6 C 8,3 C 4,4 C 95 % 1009,4 hPa 0,0 l/m 0 min 0 min 0 W/m 16,1 km/h (3 Bft) 93,62 %
11.01.2023 02:30 8,6 C 8,3 C 5,0 C 95 % 1009,4 hPa 0,0 l/m 0 min 0 min 0 W/m 9,7 km/h (2 Bft) 95,65 %
11.01.2023 02:32 8,6 C 8,3 C 5,0 C 95 % 1009,4 hPa 0,0 l/m 0 min 0 min 0 W/m 12,9 km/h (3 Bft) 95,74 %
11.01.2023 02:34 8,6 C 8,3 C 5,0 C 95 % 1009,4 hPa 0,0 l/m 0 min 0 min 0 W/m 12,9 km/h (3 Bft) 93,62 %
11.01.2023 02:36 8,7 C 8,3 C 5,0 C 95 % 1009,3 hPa 0,0 l/m 0 min 0 min 0 W/m 12,9 km/h (3 Bft) 95,74 %
11.01.2023 02:38 8,7 C 8,3 C 5,0 C 95 % 1009,3 hPa 0,0 l/m 0 min 0 min 0 W/m 12,9 km/h (3 Bft) 95,74 %
11.01.2023 02:40 8,8 C 8,3 C 5,0 C 95 % 1009,3 hPa 0,0 l/m 0 min 0 min 0 W/m 16,1 km/h (3 Bft) 95,74 %
11.01.2023 02:42 8,8 C 8,3 C 5,0 C 95 % 1009,3 hPa 0,0 l/m 0 min 0 min 0 W/m 12,9 km/h (3 Bft) 93,62 %
11.01.2023 02:44 8,8 C 8,3 C 5,0 C 95 % 1009,3 hPa 0,0 l/m 0 min 0 min 0 W/m 12,9 km/h (3 Bft) 95,65 %
11.01.2023 02:46 8,8 C 8,3 C 5,0 C 95 % 1009,3 hPa 0,0 l/m 0 min 0 min 0 W/m 12,9 km/h (3 Bft) 95,74 %
11.01.2023 02:48 8,9 C 8,3 C 5,0 C 95 % 1009,3 hPa 0,0 l/m 0 min 0 min 0 W/m 12,9 km/h (3 Bft) 95,74 %
11.01.2023 02:50 8,9 C 8,3 C 5,0 C 95 % 1009,2 hPa 0,0 l/m 0 min 0 min 0 W/m 9,7 km/h (2 Bft) 97,87 %
11.01.2023 02:52 8,9 C 8,3 C 5,0 C 95 % 1009,2 hPa 0,0 l/m 0 min 0 min 0 W/m 12,9 km/h (3 Bft) 100,00 %
11.01.2023 02:54 9,0 C 8,3 C 5,0 C 95 % 1009,3 hPa 0,0 l/m 0 min 0 min 0 W/m 16,1 km/h (3 Bft) 97,87 %
11.01.2023 02:56 9,0 C 8,3 C 5,0 C 95 % 1009,3 hPa 0,0 l/m 0 min 0 min 0 W/m 12,9 km/h (3 Bft) 100,00 %
11.01.2023 02:58 9,1 C 8,3 C 5,0 C 95 % 1009,3 hPa 0,0 l/m 0 min 0 min 0 W/m 12,9 km/h (3 Bft) 100,00 %
11.01.2023 03:00 9,1 C 8,3 C 5,0 C 95 % 1009,2 hPa 0,0 l/m 0 min 0 min 0 W/m 12,9 km/h (3 Bft) 97,83 %
11.01.2023 03:02 9,1 C 8,3 C 5,0 C 95 % 1009,3 hPa 0,0 l/m 0 min 0 min 0 W/m 12,9 km/h (3 Bft) 97,87 %
11.01.2023 03:04 9,1 C 8,3 C 5,0 C 95 % 1009,3 hPa 0,0 l/m 0 min 0 min 0 W/m 9,7 km/h (2 Bft) 97,87 %
11.01.2023 03:06 9,1 C 8,3 C 5,0 C 95 % 1009,3 hPa 0,0 l/m 0 min 0 min 0 W/m 6,4 km/h (2 Bft) 100,00 %
11.01.2023 03:08 9,1 C 8,3 C 5,0 C 95 % 1009,2 hPa 0,0 l/m 0 min 0 min 0 W/m 6,4 km/h (2 Bft) 100,00 %
11.01.2023 03:10 9,1 C 8,3 C 5,0 C 95 % 1009,3 hPa 0,0 l/m 0 min 0 min 0 W/m 12,9 km/h (3 Bft) 100,00 %
11.01.2023 03:12 9,2 C 8,3 C 5,0 C 95 % 1009,3 hPa 0,0 l/m 0 min 0 min 0 W/m 12,9 km/h (3 Bft) 100,00 %
11.01.2023 03:14 9,2 C 8,3 C 5,6 C 95 % 1009,2 hPa 0,0 l/m 0 min 0 min 0 W/m 6,4 km/h (2 Bft) 100,00 %
11.01.2023 03:16 9,3 C 8,9 C 5,6 C 95 % 1009,2 hPa 0,0 l/m 0 min 0 min 0 W/m 12,9 km/h (3 Bft) 100,00 %
11.01.2023 03:18 9,4 C 8,9 C 5,6 C 95 % 1009,2 hPa 0,0 l/m 0 min 0 min 0 W/m 16,1 km/h (3 Bft) 100,00 %
11.01.2023 03:20 9,4 C 8,9 C 5,6 C 95 % 1009,1 hPa 0,0 l/m 0 min 0 min 0 W/m 12,9 km/h (3 Bft) 100,00 %
11.01.2023 03:22 9,5 C 9,4 C 5,6 C 96 % 1009,1 hPa 0,0 l/m 0 min 0 min 0 W/m 12,9 km/h (3 Bft) 100,00 %
11.01.2023 03:24 9,6 C 9,4 C 5,6 C 96 % 1009,1 hPa 0,0 l/m 0 min 0 min 0 W/m 16,1 km/h (3 Bft) 100,00 %
11.01.2023 03:26 9,7 C 9,4 C 5,6 C 96 % 1009,0 hPa 0,0 l/m 0 min 0 min 0 W/m 19,3 km/h (3 Bft) 100,00 %
11.01.2023 03:28 9,7 C 9,4 C 5,6 C 96 % 1009,0 hPa 0,0 l/m 0 min 0 min 0 W/m 9,7 km/h (2 Bft) 100,00 %
11.01.2023 03:30 9,8 C 9,4 C 5,6 C 96 % 1008,9 hPa 0,0 l/m 0 min 0 min 0 W/m 19,3 km/h (3 Bft) 100,00 %
11.01.2023 03:32 9,8 C 9,4 C 5,6 C 96 % 1008,9 hPa 0,0 l/m 0 min 0 min 0 W/m 29,0 km/h (5 Bft) 94,44 %
11.01.2023 03:34 9,9 C 9,4 C 6,1 C 96 % 1008,9 hPa 0,0 l/m 0 min 0 min 0 W/m 22,5 km/h (4 Bft) 100,00 %
11.01.2023 03:36 10,0 C 10,0 C 6,1 C 96 % 1008,9 hPa 0,0 l/m 0 min 0 min 0 W/m 22,5 km/h (4 Bft) 98,15 %
11.01.2023 03:38 10,1 C 10,0 C 6,1 C 96 % 1008,9 hPa 0,0 l/m 0 min 0 min 0 W/m 35,4 km/h (5 Bft) 100,00 %
11.01.2023 03:40 10,2 C 10,0 C 6,1 C 96 % 1008,8 hPa 0,0 l/m 0 min 0 min 0 W/m 29,0 km/h (5 Bft) 100,00 %
11.01.2023 03:42 10,3 C 10,0 C 6,1 C 96 % 1008,8 hPa 0,0 l/m 0 min 0 min 0 W/m 35,4 km/h (5 Bft) 100,00 %
11.01.2023 03:44 10,4 C 10,0 C 6,1 C 95 % 1008,8 hPa 0,0 l/m 0 min 0 min 0 W/m 16,1 km/h (3 Bft) 100,00 %
11.01.2023 03:46 10,4 C 10,0 C 6,1 C 95 % 1008,9 hPa 0,0 l/m 0 min 0 min 0 W/m 35,4 km/h (5 Bft) 100,00 %
11.01.2023 03:48 10,6 C 10,0 C 6,7 C 95 % 1008,8 hPa 0,0 l/m 0 min 0 min 0 W/m 32,2 km/h (5 Bft) 97,87 %
11.01.2023 03:50 10,6 C 10,6 C 6,7 C 95 % 1008,8 hPa 0,0 l/m 0 min 0 min 0 W/m 25,7 km/h (4 Bft) 100,00 %
11.01.2023 03:52 10,7 C 10,6 C 6,7 C 95 % 1008,7 hPa 0,0 l/m 0 min 0 min 0 W/m 19,3 km/h (3 Bft) 97,87 %
11.01.2023 03:54 10,8 C 10,6 C 6,7 C 95 % 1008,8 hPa 0,0 l/m 0 min 0 min 0 W/m 22,5 km/h (4 Bft) 100,00 %
11.01.2023 03:56 10,8 C 10,6 C 6,7 C 94 % 1008,7 hPa 0,0 l/m 0 min 0 min 0 W/m 29,0 km/h (5 Bft) 100,00 %
11.01.2023 03:58 10,8 C 10,6 C 7,2 C 94 % 1008,7 hPa 0,0 l/m 0 min 0 min 0 W/m 29,0 km/h (5 Bft) 100,00 %
11.01.2023 04:00 10,9 C 10,6 C 6,7 C 94 % 1008,7 hPa 0,0 l/m 0 min 0 min 0 W/m 16,1 km/h (3 Bft) 100,00 %
11.01.2023 04:02 10,9 C 10,6 C 6,7 C 94 % 1008,7 hPa 0,0 l/m 0 min 0 min 0 W/m 25,7 km/h (4 Bft) 100,00 %
11.01.2023 04:04 10,9 C 10,6 C 6,7 C 94 % 1008,6 hPa 0,0 l/m 0 min 0 min 0 W/m 38,6 km/h (5 Bft) 100,00 %
11.01.2023 04:06 11,0 C 10,6 C 6,7 C 94 % 1008,7 hPa 0,0 l/m 0 min 0 min 0 W/m 25,7 km/h (4 Bft) 93,62 %
11.01.2023 04:08 11,1 C 10,6 C 6,7 C 94 % 1008,6 hPa 0,0 l/m 0 min 0 min 0 W/m 25,7 km/h (4 Bft) 100,00 %
11.01.2023 04:10 11,1 C 10,6 C 7,2 C 94 % 1008,6 hPa 0,0 l/m 0 min 0 min 0 W/m 35,4 km/h (5 Bft) 97,83 %
11.01.2023 04:12 11,1 C 10,6 C 7,2 C 93 % 1008,5 hPa 0,0 l/m 0 min 0 min 0 W/m 35,4 km/h (5 Bft) 100,00 %
11.01.2023 04:14 11,2 C 10,6 C 7,2 C 93 % 1008,5 hPa 0,0 l/m 0 min 2 min 0 W/m 25,7 km/h (4 Bft) 95,74 %
11.01.2023 04:16 11,2 C 10,6 C 6,7 C 93 % 1008,5 hPa 0,0 l/m 0 min 2 min 0 W/m 35,4 km/h (5 Bft) 97,87 %
11.01.2023 04:18 11,2 C 10,0 C 6,7 C 93 % 1008,5 hPa 0,0 l/m 0 min 2 min 0 W/m 38,6 km/h (5 Bft) 93,62 %
11.01.2023 04:20 11,2 C 10,0 C 6,7 C 93 % 1008,5 hPa 0,0 l/m 0 min 2 min 0 W/m 25,7 km/h (4 Bft) 95,74 %
11.01.2023 04:22 11,2 C 10,0 C 6,7 C 93 % 1008,7 hPa 0,0 l/m 0 min 2 min 0 W/m 41,8 km/h (6 Bft) 95,74 %
11.01.2023 04:24 11,2 C 10,0 C 6,7 C 93 % 1008,6 hPa 0,0 l/m 0 min 2 min 0 W/m 32,2 km/h (5 Bft) 93,48 %
11.01.2023 04:26 11,2 C 10,0 C 6,7 C 93 % 1008,5 hPa 0,2 l/m 0 min 2 min 0 W/m 48,3 km/h (6 Bft) 93,62 %
11.01.2023 04:28 11,2 C 10,0 C 6,7 C 93 % 1008,5 hPa 0,0 l/m 0 min 2 min 0 W/m 29,0 km/h (5 Bft) 97,87 %
11.01.2023 04:30 11,2 C 9,4 C 6,7 C 93 % 1008,5 hPa 0,0 l/m 0 min 2 min 0 W/m 22,5 km/h (4 Bft) 97,87 %
11.01.2023 04:32 11,2 C 9,4 C 6,7 C 93 % 1008,5 hPa 0,0 l/m 0 min 2 min 0 W/m 16,1 km/h (3 Bft) 95,74 %
11.01.2023 04:34 11,2 C 10,0 C 6,7 C 93 % 1008,5 hPa 0,0 l/m 0 min 2 min 0 W/m 29,0 km/h (5 Bft) 95,74 %
11.01.2023 04:36 11,2 C 10,0 C 6,7 C 93 % 1008,5 hPa 0,2 l/m 0 min 2 min 0 W/m 16,1 km/h (3 Bft) 95,65 %
11.01.2023 04:38 11,2 C 10,0 C 6,7 C 93 % 1008,5 hPa 0,0 l/m 0 min 2 min 0 W/m 19,3 km/h (3 Bft) 95,74 %
11.01.2023 04:40 11,1 C 10,0 C 6,7 C 94 % 1008,5 hPa 0,0 l/m 0 min 2 min 0 W/m 29,0 km/h (5 Bft) 93,62 %
11.01.2023 04:42 11,1 C 9,4 C 6,7 C 94 % 1008,4 hPa 0,0 l/m 0 min 2 min 0 W/m 16,1 km/h (3 Bft) 93,62 %
11.01.2023 04:44 11,1 C 9,4 C 6,7 C 94 % 1008,4 hPa 0,0 l/m 0 min 2 min 0 W/m 22,5 km/h (4 Bft) 95,74 %
11.01.2023 04:46 11,1 C 9,4 C 6,7 C 94 % 1008,4 hPa 0,2 l/m 0 min 2 min 0 W/m 25,7 km/h (4 Bft) 95,74 %
11.01.2023 04:48 11,1 C 10,0 C 6,7 C 94 % 1008,4 hPa 0,0 l/m 0 min 2 min 0 W/m 29,0 km/h (5 Bft) 93,62 %
11.01.2023 04:50 11,1 C 10,0 C 6,7 C 94 % 1008,4 hPa 0,0 l/m 0 min 2 min 0 W/m 29,0 km/h (5 Bft) 93,62 %
11.01.2023 04:52 11,1 C 10,0 C 6,7 C 94 % 1008,4 hPa 0,0 l/m 0 min 2 min 0 W/m 22,5 km/h (4 Bft) 95,65 %
11.01.2023 04:54 11,1 C 9,4 C 6,7 C 94 % 1008,3 hPa 0,0 l/m 0 min 0 min 0 W/m 16,1 km/h (3 Bft) 93,62 %
11.01.2023 04:56 11,0 C 9,4 C 6,7 C 94 % 1008,3 hPa 0,0 l/m 0 min 2 min 0 W/m 19,3 km/h (3 Bft) 93,62 %
11.01.2023 04:58 11,0 C 10,0 C 6,7 C 94 % 1008,2 hPa 0,0 l/m 0 min 2 min 0 W/m 16,1 km/h (3 Bft) 95,74 %
11.01.2023 05:00 11,0 C 10,0 C 6,7 C 94 % 1008,3 hPa 0,0 l/m 0 min 2 min 0 W/m 22,5 km/h (4 Bft) 95,74 %
11.01.2023 05:02 10,9 C 10,0 C 6,7 C 94 % 1008,2 hPa 0,0 l/m 0 min 2 min 0 W/m 16,1 km/h (3 Bft) 95,74 %
11.01.2023 05:04 10,9 C 10,0 C 6,7 C 94 % 1008,3 hPa 0,0 l/m 0 min 2 min 0 W/m 12,9 km/h (3 Bft) 95,24 %
11.01.2023 05:06 10,9 C 10,0 C 6,7 C 94 % 1008,3 hPa 0,0 l/m 0 min 2 min 0 W/m 25,7 km/h (4 Bft) 97,87 %
11.01.2023 05:08 10,9 C 10,0 C 6,7 C 94 % 1008,3 hPa 0,2 l/m 0 min 2 min 0 W/m 22,5 km/h (4 Bft) 95,74 %
11.01.2023 05:10 10,9 C 10,0 C 6,7 C 95 % 1008,2 hPa 0,0 l/m 0 min 2 min 0 W/m 16,1 km/h (3 Bft) 97,87 %
11.01.2023 05:12 10,9 C 10,0 C 6,7 C 95 % 1008,2 hPa 0,0 l/m 0 min 2 min 0 W/m 19,3 km/h (3 Bft) 97,87 %
11.01.2023 05:14 10,9 C 9,4 C 6,7 C 95 % 1008,3 hPa 0,0 l/m 0 min 2 min 0 W/m 22,5 km/h (4 Bft) 97,83 %
11.01.2023 05:16 10,9 C 9,4 C 6,7 C 95 % 1008,3 hPa 0,0 l/m 0 min 2 min 0 W/m 12,9 km/h (3 Bft) 97,87 %
11.01.2023 05:18 10,9 C 9,4 C 6,7 C 95 % 1008,2 hPa 0,0 l/m 0 min 2 min 0 W/m 16,1 km/h (3 Bft) 97,87 %
11.01.2023 05:20 10,8 C 9,4 C 6,7 C 95 % 1008,2 hPa 0,0 l/m 0 min 0 min 0 W/m 19,3 km/h (3 Bft) 97,87 %
11.01.2023 05:22 10,8 C 9,4 C 6,7 C 95 % 1008,2 hPa 0,0 l/m 0 min 0 min 0 W/m 25,7 km/h (4 Bft) 97,87 %
11.01.2023 05:24 10,8 C 9,4 C 6,7 C 95 % 1008,2 hPa 0,0 l/m 0 min 2 min 0 W/m 25,7 km/h (4 Bft) 95,74 %
11.01.2023 05:26 10,8 C 9,4 C 6,7 C 95 % 1008,1 hPa 0,2 l/m 0 min 2 min 0 W/m 19,3 km/h (3 Bft) 97,87 %
11.01.2023 05:28 10,8 C 9,4 C 6,7 C 95 % 1008,1 hPa 0,0 l/m 0 min 2 min 0 W/m 25,7 km/h (4 Bft) 97,83 %
11.01.2023 05:30 10,8 C 9,4 C 6,7 C 95 % 1008,2 hPa 0,0 l/m 0 min 2 min 0 W/m 25,7 km/h (4 Bft) 95,74 %
11.01.2023 05:32 10,8 C 9,4 C 6,7 C 95 % 1008,2 hPa 0,0 l/m 0 min 2 min 0 W/m 22,5 km/h (4 Bft) 95,83 %
11.01.2023 05:34 10,8 C 9,4 C 6,7 C 95 % 1008,1 hPa 0,0 l/m 0 min 2 min 0 W/m 29,0 km/h (5 Bft) 97,87 %
11.01.2023 05:36 10,8 C 9,4 C 6,7 C 95 % 1008,1 hPa 0,0 l/m 0 min 2 min 0 W/m 16,1 km/h (3 Bft) 97,87 %
11.01.2023 05:38 10,8 C 9,4 C 6,7 C 95 % 1008,2 hPa 0,2 l/m 0 min 2 min 0 W/m 19,3 km/h (3 Bft) 95,74 %
11.01.2023 05:40 10,8 C 9,4 C 6,7 C 95 % 1008,0 hPa 0,0 l/m 0 min 2 min 0 W/m 12,9 km/h (3 Bft) 97,83 %
11.01.2023 05:42 10,8 C 10,0 C 6,7 C 95 % 1008,1 hPa 0,0 l/m 0 min 2 min 0 W/m 19,3 km/h (3 Bft) 97,87 %
11.01.2023 05:44 10,8 C 10,0 C 6,7 C 96 % 1008,1 hPa 0,0 l/m 0 min 0 min 0 W/m 25,7 km/h (4 Bft) 100,00 %
11.01.2023 05:46 10,8 C 10,0 C 6,7 C 96 % 1008,1 hPa 0,0 l/m 0 min 0 min 0 W/m 16,1 km/h (3 Bft) 95,74 %
11.01.2023 05:48 10,8 C 10,0 C 6,7 C 96 % 1008,1 hPa 0,0 l/m 0 min 0 min 0 W/m 29,0 km/h (5 Bft) 100,00 %
11.01.2023 05:50 10,8 C 10,0 C 6,7 C 96 % 1008,1 hPa 0,0 l/m 0 min 2 min 0 W/m 16,1 km/h (3 Bft) 100,00 %
11.01.2023 05:52 10,8 C 10,0 C 6,7 C 96 % 1008,2 hPa 0,0 l/m 0 min 2 min 0 W/m 16,1 km/h (3 Bft) 97,87 %
11.01.2023 05:54 10,8 C 10,0 C 6,7 C 96 % 1008,2 hPa 0,0 l/m 0 min 2 min 0 W/m 25,7 km/h (4 Bft) 97,83 %
11.01.2023 05:56 10,8 C 10,0 C 6,7 C 96 % 1008,2 hPa 0,0 l/m 0 min 2 min 0 W/m 25,7 km/h (4 Bft) 100,00 %
11.01.2023 05:58 10,8 C 10,0 C 6,7 C 96 % 1008,2 hPa 0,0 l/m 0 min 2 min 0 W/m 29,0 km/h (5 Bft) 100,00 %
11.01.2023 06:00 10,8 C 10,0 C 6,7 C 96 % 1008,2 hPa 0,2 l/m 0 min 2 min 0 W/m 22,5 km/h (4 Bft) 100,00 %
11.01.2023 06:02 10,8 C 10,0 C 6,7 C 96 % 1008,1 hPa 0,0 l/m 0 min 2 min 0 W/m 22,5 km/h (4 Bft) 100,00 %
11.01.2023 06:04 10,8 C 10,0 C 6,7 C 96 % 1008,1 hPa 0,0 l/m 0 min 2 min 0 W/m 29,0 km/h (5 Bft) 100,00 %
11.01.2023 06:08 10,9 C 10,0 C 6,7 C 96 % 1008,1 hPa 0,0 l/m 0 min 4 min 0 W/m 22,5 km/h (4 Bft) 100,00 %
11.01.2023 06:10 10,9 C 10,0 C 7,2 C 96 % 1008,1 hPa 0,0 l/m 0 min 2 min 0 W/m 19,3 km/h (3 Bft) 93,62 %
11.01.2023 06:12 10,9 C 10,0 C 7,2 C 96 % 1008,1 hPa 0,2 l/m 0 min 2 min 0 W/m 25,7 km/h (4 Bft) 97,87 %
11.01.2023 06:14 10,9 C 10,0 C 7,2 C 96 % 1008,2 hPa 0,0 l/m 0 min 2 min 0 W/m 22,5 km/h (4 Bft) 95,74 %
11.01.2023 06:16 10,9 C 10,0 C 6,7 C 96 % 1008,2 hPa 0,0 l/m 0 min 2 min 0 W/m 32,2 km/h (5 Bft) 97,87 %
11.01.2023 06:18 10,9 C 10,0 C 6,7 C 96 % 1008,1 hPa 0,0 l/m 0 min 2 min 0 W/m 9,7 km/h (2 Bft) 97,87 %
11.01.2023 06:20 10,8 C 10,0 C 6,7 C 96 % 1008,2 hPa 0,0 l/m 0 min 2 min 0 W/m 16,1 km/h (3 Bft) 95,74 %
11.01.2023 06:22 10,9 C 10,0 C 7,2 C 96 % 1008,1 hPa 0,0 l/m 0 min 2 min 0 W/m 29,0 km/h (5 Bft) 97,87 %
11.01.2023 06:24 10,9 C 10,0 C 7,2 C 96 % 1008,1 hPa 0,0 l/m 0 min 2 min 0 W/m 19,3 km/h (3 Bft) 97,83 %
11.01.2023 06:26 10,9 C 10,0 C 7,2 C 96 % 1008,2 hPa 0,0 l/m 0 min 2 min 0 W/m 32,2 km/h (5 Bft) 97,87 %
11.01.2023 06:28 10,9 C 10,0 C 7,2 C 96 % 1008,2 hPa 0,0 l/m 0 min 0 min 0 W/m 25,7 km/h (4 Bft) 97,87 %
11.01.2023 06:30 10,9 C 10,0 C 7,2 C 97 % 1008,1 hPa 0,0 l/m 0 min 2 min 0 W/m 16,1 km/h (3 Bft) 97,87 %
11.01.2023 06:32 10,9 C 10,0 C 7,2 C 97 % 1008,1 hPa 0,2 l/m 0 min 2 min 0 W/m 19,3 km/h (3 Bft) 97,87 %
11.01.2023 06:34 10,9 C 10,0 C 7,2 C 97 % 1008,2 hPa 0,0 l/m 0 min 2 min 0 W/m 22,5 km/h (4 Bft) 95,74 %
11.01.2023 06:36 10,9 C 10,0 C 7,2 C 97 % 1008,2 hPa 0,0 l/m 0 min 2 min 0 W/m 25,7 km/h (4 Bft) 97,87 %
11.01.2023 06:38 10,9 C 10,0 C 7,2 C 97 % 1008,2 hPa 0,2 l/m 0 min 2 min 0 W/m 29,0 km/h (5 Bft) 97,83 %
11.01.2023 06:40 10,9 C 10,0 C 7,2 C 97 % 1008,2 hPa 0,0 l/m 0 min 2 min 0 W/m 29,0 km/h (5 Bft) 97,87 %
11.01.2023 06:42 10,9 C 10,0 C 7,2 C 97 % 1008,1 hPa 0,0 l/m 0 min 2 min 0 W/m 29,0 km/h (5 Bft) 95,74 %
11.01.2023 06:44 10,9 C 10,0 C 7,2 C 97 % 1008,1 hPa 0,0 l/m 0 min 2 min 0 W/m 25,7 km/h (4 Bft) 100,00 %
11.01.2023 06:46 10,9 C 10,0 C 7,2 C 97 % 1008,1 hPa 0,0 l/m 0 min 2 min 0 W/m 25,7 km/h (4 Bft) 97,87 %
11.01.2023 06:48 11,0 C 10,0 C 7,2 C 97 % 1008,1 hPa 0,0 l/m 0 min 2 min 0 W/m 22,5 km/h (4 Bft) 100,00 %
11.01.2023 06:50 11,0 C 10,0 C 7,2 C 97 % 1008,1 hPa 0,0 l/m 0 min 2 min 0 W/m 29,0 km/h (5 Bft) 100,00 %
11.01.2023 06:52 11,0 C 10,0 C 7,2 C 97 % 1008,1 hPa 0,0 l/m 0 min 2 min 0 W/m 29,0 km/h (5 Bft) 97,87 %
11.01.2023 06:54 11,0 C 10,0 C 7,2 C 97 % 1008,1 hPa 0,0 l/m 0 min 2 min 0 W/m 25,7 km/h (4 Bft) 100,00 %
11.01.2023 06:56 11,0 C 10,0 C 7,2 C 96 % 1008,2 hPa 0,0 l/m 0 min 2 min 0 W/m 25,7 km/h (4 Bft) 97,87 %
11.01.2023 06:58 11,1 C 10,0 C 7,2 C 96 % 1008,1 hPa 0,0 l/m 0 min 2 min 0 W/m 19,3 km/h (3 Bft) 97,87 %
11.01.2023 07:00 11,0 C 10,0 C 7,2 C 96 % 1008,1 hPa 0,0 l/m 0 min 2 min 0 W/m 22,5 km/h (4 Bft) 97,87 %
11.01.2023 07:02 11,0 C 10,0 C 7,2 C 96 % 1008,1 hPa 0,2 l/m 0 min 2 min 0 W/m 19,3 km/h (3 Bft) 95,12 %
11.01.2023 07:04 11,0 C 10,0 C 7,2 C 96 % 1008,0 hPa 0,0 l/m 0 min 2 min 0 W/m 25,7 km/h (4 Bft) 97,87 %
11.01.2023 07:06 11,0 C 10,0 C 7,2 C 96 % 1008,1 hPa 0,0 l/m 0 min 2 min 0 W/m 19,3 km/h (3 Bft) 98,31 %
11.01.2023 07:08 11,0 C 10,0 C 7,2 C 96 % 1008,0 hPa 0,0 l/m 0 min 2 min 0 W/m 16,1 km/h (3 Bft) 94,29 %
11.01.2023 07:10 11,0 C 10,0 C 7,2 C 96 % 1008,0 hPa 0,0 l/m 0 min 0 min 0 W/m 16,1 km/h (3 Bft) 97,87 %
11.01.2023 07:12 11,0 C 10,0 C 7,2 C 97 % 1008,1 hPa 0,0 l/m 0 min 0 min 0 W/m 19,3 km/h (3 Bft) 97,87 %
11.01.2023 07:14 11,0 C 10,0 C 7,2 C 97 % 1008,1 hPa 0,0 l/m 0 min 2 min 0 W/m 22,5 km/h (4 Bft) 97,87 %
11.01.2023 07:16 11,0 C 10,0 C 7,2 C 97 % 1008,0 hPa 0,0 l/m 0 min 0 min 0 W/m 19,3 km/h (3 Bft) 95,74 %
11.01.2023 07:18 11,0 C 10,0 C 7,2 C 97 % 1008,1 hPa 0,0 l/m 0 min 0 min 0 W/m 25,7 km/h (4 Bft) 97,83 %
11.01.2023 07:20 11,0 C 10,0 C 7,2 C 97 % 1008,1 hPa 0,0 l/m 0 min 2 min 0 W/m 25,7 km/h (4 Bft) 98,00 %
11.01.2023 07:22 11,0 C 10,0 C 7,2 C 97 % 1008,1 hPa 0,0 l/m 0 min 2 min 0 W/m 19,3 km/h (3 Bft) 98,00 %
11.01.2023 07:24 11,0 C 10,0 C 7,2 C 97 % 1008,2 hPa 0,0 l/m 0 min 2 min 0 W/m 19,3 km/h (3 Bft) 97,83 %
11.01.2023 07:26 11,0 C 10,0 C 7,2 C 97 % 1008,1 hPa 0,0 l/m 0 min 2 min 0 W/m 22,5 km/h (4 Bft) 95,74 %
11.01.2023 07:28 11,0 C 10,0 C 7,2 C 97 % 1008,2 hPa 0,0 l/m 0 min 0 min 0 W/m 16,1 km/h (3 Bft) 97,87 %
11.01.2023 07:30 11,0 C 10,0 C 7,2 C 97 % 1008,2 hPa 0,0 l/m 0 min 2 min 0 W/m 12,9 km/h (3 Bft) 97,87 %
11.01.2023 07:32 11,0 C 10,0 C 7,2 C 97 % 1008,3 hPa 0,2 l/m 0 min 2 min 0 W/m 35,4 km/h (5 Bft) 97,56 %
11.01.2023 07:34 11,1 C 10,0 C 7,2 C 97 % 1008,3 hPa 0,2 l/m 0 min 2 min 0 W/m 19,3 km/h (3 Bft) 100,00 %
11.01.2023 07:36 11,0 C 10,0 C 7,2 C 97 % 1008,2 hPa 0,2 l/m 0 min 2 min 0 W/m 6,4 km/h (2 Bft) 97,87 %
11.01.2023 07:38 11,0 C 9,4 C 7,2 C 97 % 1008,2 hPa 0,0 l/m 0 min 2 min 0 W/m 12,9 km/h (3 Bft) 97,96 %
11.01.2023 07:40 11,0 C 10,0 C 7,2 C 97 % 1008,3 hPa 0,2 l/m 0 min 2 min 0 W/m 22,5 km/h (4 Bft) 100,00 %
11.01.2023 07:42 10,9 C 10,0 C 7,2 C 97 % 1008,3 hPa 0,0 l/m 0 min 0 min 0 W/m 6,4 km/h (2 Bft) 100,00 %
11.01.2023 07:44 10,9 C 10,0 C 7,2 C 97 % 1008,3 hPa 0,0 l/m 0 min 2 min 0 W/m 16,1 km/h (3 Bft) 100,00 %
11.01.2023 07:46 10,9 C 10,0 C 7,2 C 97 % 1008,4 hPa 0,0 l/m 0 min 2 min 0 W/m 6,4 km/h (2 Bft) 97,87 %
11.01.2023 07:48 10,9 C 10,0 C 7,2 C 97 % 1008,3 hPa 0,0 l/m 0 min 0 min 0 W/m 12,9 km/h (3 Bft) 93,88 %
11.01.2023 07:50 10,9 C 10,0 C 7,2 C 97 % 1008,4 hPa 0,0 l/m 0 min 0 min 0 W/m 12,9 km/h (3 Bft) 97,87 %
11.01.2023 07:52 10,9 C 10,0 C 7,2 C 97 % 1008,5 hPa 0,0 l/m 0 min 0 min 0 W/m 16,1 km/h (3 Bft) 97,87 %
11.01.2023 07:54 10,9 C 10,0 C 7,2 C 97 % 1008,5 hPa 0,0 l/m 0 min 0 min 0 W/m 6,4 km/h (2 Bft) 97,87 %
11.01.2023 07:56 10,9 C 10,0 C 7,2 C 97 % 1008,4 hPa 0,0 l/m 0 min 0 min 0 W/m 48,3 km/h (6 Bft) 97,87 %
11.01.2023 07:58 10,9 C 10,0 C 7,2 C 97 % 1008,4 hPa 0,0 l/m 0 min 0 min 0 W/m 35,4 km/h (5 Bft) 97,87 %
11.01.2023 08:00 10,9 C 10,0 C 7,2 C 97 % 1008,5 hPa 0,0 l/m 0 min 0 min 0 W/m 16,1 km/h (3 Bft) 97,87 %
11.01.2023 08:02 10,9 C 10,0 C 7,2 C 97 % 1008,5 hPa 0,0 l/m 0 min 0 min 0 W/m 16,1 km/h (3 Bft) 95,65 %
11.01.2023 08:04 10,9 C 10,0 C 7,2 C 97 % 1008,6 hPa 0,0 l/m 0 min 0 min 0 W/m 6,4 km/h (2 Bft) 97,87 %
11.01.2023 08:06 10,9 C 9,4 C 7,2 C 97 % 1008,7 hPa 0,0 l/m 0 min 2 min 0 W/m 6,4 km/h (2 Bft) 91,49 %
11.01.2023 08:08 10,8 C 9,4 C 7,2 C 97 % 1008,6 hPa 0,0 l/m 0 min 0 min 0 W/m 6,4 km/h (2 Bft) 95,74 %
11.01.2023 08:10 10,8 C 9,4 C 7,2 C 97 % 1008,7 hPa 0,0 l/m 0 min 0 min 0 W/m 6,4 km/h (2 Bft) 95,74 %
11.01.2023 08:12 10,8 C 9,4 C 7,2 C 97 % 1008,8 hPa 0,0 l/m 0 min 0 min 0 W/m 6,4 km/h (2 Bft) 95,74 %
11.01.2023 08:14 10,8 C 9,4 C 7,2 C 97 % 1008,7 hPa 0,0 l/m 0 min 0 min 0 W/m 9,7 km/h (2 Bft) 95,65 %
11.01.2023 08:16 10,8 C 10,0 C 7,2 C 97 % 1008,8 hPa 0,0 l/m 0 min 0 min 0 W/m 16,1 km/h (3 Bft) 95,74 %
11.01.2023 08:18 10,8 C 10,0 C 7,2 C 97 % 1008,8 hPa 0,0 l/m 0 min 2 min 0 W/m 19,3 km/h (3 Bft) 95,74 %
11.01.2023 08:20 10,8 C 10,0 C 7,2 C 97 % 1008,8 hPa 0,0 l/m 0 min 0 min 0 W/m 16,1 km/h (3 Bft) 95,74 %
11.01.2023 08:22 10,8 C 10,0 C 7,2 C 97 % 1008,9 hPa 0,0 l/m 0 min 0 min 0 W/m 12,9 km/h (3 Bft) 91,49 %
11.01.2023 08:24 10,8 C 10,0 C 7,2 C 97 % 1008,9 hPa 0,0 l/m 0 min 0 min 0 W/m 12,9 km/h (3 Bft) 95,74 %
11.01.2023 08:26 10,8 C 10,0 C 7,2 C 97 % 1008,9 hPa 0,0 l/m 0 min 0 min 0 W/m 6,4 km/h (2 Bft) 80,85 %
11.01.2023 08:28 10,8 C 9,4 C 7,2 C 97 % 1008,9 hPa 0,0 l/m 0 min 0 min 0 W/m 9,7 km/h (2 Bft) 54,35 %
11.01.2023 08:30 10,8 C 9,4 C 7,2 C 97 % 1008,8 hPa 0,0 l/m 0 min 2 min 0 W/m 9,7 km/h (2 Bft) 80,85 %
11.01.2023 08:32 10,8 C 9,4 C 7,2 C 97 % 1008,8 hPa 0,0 l/m 0 min 2 min 0 W/m 9,7 km/h (2 Bft) 95,74 %
11.01.2023 08:34 10,8 C 9,4 C 7,2 C 97 % 1008,8 hPa 0,0 l/m 0 min 0 min 0 W/m 6,4 km/h (2 Bft) 96,00 %
11.01.2023 08:36 10,7 C 9,4 C 7,2 C 97 % 1008,8 hPa 0,0 l/m 0 min 2 min 0 W/m 12,9 km/h (3 Bft) 91,30 %
11.01.2023 08:38 10,7 C 9,4 C 7,2 C 97 % 1008,8 hPa 0,0 l/m 0 min 0 min 0 W/m 3,2 km/h (1 Bft) 95,24 %
11.01.2023 08:40 10,7 C 9,4 C 7,2 C 97 % 1008,8 hPa 0,0 l/m 0 min 2 min 0 W/m 6,4 km/h (2 Bft) 100,00 %
11.01.2023 08:42 10,7 C 9,4 C 7,2 C 97 % 1008,9 hPa 0,0 l/m 0 min 2 min 0 W/m 9,7 km/h (2 Bft) 100,00 %
11.01.2023 08:44 10,7 C 9,4 C 7,2 C 97 % 1008,9 hPa 0,0 l/m 0 min 2 min 0 W/m 6,4 km/h (2 Bft) 97,87 %
11.01.2023 08:46 10,7 C 9,4 C 7,2 C 97 % 1008,9 hPa 0,0 l/m 0 min 2 min 0 W/m 12,9 km/h (3 Bft) 100,00 %
11.01.2023 08:48 10,7 C 9,4 C 7,2 C 97 % 1008,9 hPa 0,0 l/m 0 min 0 min 0 W/m 6,4 km/h (2 Bft) 100,00 %
11.01.2023 08:50 10,7 C 10,0 C 7,2 C 97 % 1009,0 hPa 0,0 l/m 0 min 0 min 0 W/m 12,9 km/h (3 Bft) 100,00 %
11.01.2023 08:52 10,7 C 10,0 C 7,2 C 97 % 1008,9 hPa 0,0 l/m 0 min 0 min 0 W/m 9,7 km/h (2 Bft) 100,00 %
11.01.2023 08:54 10,7 C 10,0 C 7,2 C 97 % 1009,0 hPa 0,0 l/m 0 min 0 min 0 W/m 12,9 km/h (3 Bft) 97,87 %
11.01.2023 08:56 10,7 C 10,0 C 7,2 C 97 % 1009,0 hPa 0,0 l/m 0 min 0 min 5 W/m 6,4 km/h (2 Bft) 97,87 %
11.01.2023 08:58 10,7 C 10,0 C 7,2 C 97 % 1009,0 hPa 0,0 l/m 0 min 0 min 1 W/m 6,4 km/h (2 Bft) 95,74 %
11.01.2023 09:00 10,7 C 9,4 C 7,2 C 97 % 1009,0 hPa 0,0 l/m 0 min 0 min 0 W/m 3,2 km/h (1 Bft) 97,87 %
11.01.2023 09:02 10,7 C 9,4 C 7,2 C 97 % 1009,1 hPa 0,0 l/m 0 min 0 min 0 W/m 3,2 km/h (1 Bft) 100,00 %
11.01.2023 09:04 10,7 C 9,4 C 7,2 C 97 % 1009,2 hPa 0,0 l/m 0 min 0 min 0 W/m 3,2 km/h (1 Bft) 100,00 %
11.01.2023 09:06 10,7 C 10,0 C 7,2 C 97 % 1009,3 hPa 0,0 l/m 0 min 0 min 0 W/m 12,9 km/h (3 Bft) 100,00 %
11.01.2023 09:08 10,7 C 9,4 C 7,2 C 97 % 1009,4 hPa 0,0 l/m 0 min 2 min 0 W/m 6,4 km/h (2 Bft) 100,00 %
11.01.2023 09:10 10,7 C 10,0 C 7,2 C 97 % 1009,4 hPa 0,2 l/m 0 min 2 min 4 W/m 19,3 km/h (3 Bft) 97,83 %
11.01.2023 09:12 10,7 C 10,0 C 7,2 C 97 % 1009,4 hPa 0,0 l/m 0 min 2 min 7 W/m 16,1 km/h (3 Bft) 100,00 %
11.01.2023 09:14 10,6 C 10,0 C 7,2 C 97 % 1009,4 hPa 0,0 l/m 0 min 2 min 7 W/m 19,3 km/h (3 Bft) 95,74 %
11.01.2023 09:16 10,6 C 9,4 C 7,2 C 97 % 1009,5 hPa 0,0 l/m 0 min 2 min 7 W/m 16,1 km/h (3 Bft) 97,87 %
11.01.2023 09:18 10,6 C 9,4 C 7,2 C 97 % 1009,4 hPa 0,0 l/m 0 min 2 min 7 W/m 16,1 km/h (3 Bft) 97,87 %
11.01.2023 09:20 10,5 C 9,4 C 7,2 C 97 % 1009,3 hPa 0,0 l/m 0 min 2 min 7 W/m 6,4 km/h (2 Bft) 97,87 %
11.01.2023 09:22 10,4 C 9,4 C 6,7 C 97 % 1009,5 hPa 0,2 l/m 0 min 2 min 7 W/m 12,9 km/h (3 Bft) 100,00 %
11.01.2023 09:24 10,4 C 9,4 C 6,7 C 97 % 1009,6 hPa 0,0 l/m 0 min 0 min 6 W/m 12,9 km/h (3 Bft) 100,00 %
11.01.2023 09:26 10,4 C 9,4 C 6,7 C 97 % 1009,7 hPa 0,0 l/m 0 min 0 min 5 W/m 9,7 km/h (2 Bft) 100,00 %
11.01.2023 09:28 10,4 C 9,4 C 6,7 C 97 % 1009,8 hPa 0,0 l/m 0 min 0 min 5 W/m 6,4 km/h (2 Bft) 97,87 %
11.01.2023 09:30 10,4 C 9,4 C 6,7 C 97 % 1009,8 hPa 0,0 l/m 0 min 0 min 5 W/m 6,4 km/h (2 Bft) 97,87 %
11.01.2023 09:32 10,4 C 9,4 C 6,7 C 97 % 1009,9 hPa 0,0 l/m 0 min 2 min 5 W/m 6,4 km/h (2 Bft) 97,87 %
11.01.2023 09:34 10,3 C 9,4 C 6,7 C 97 % 1010,0 hPa 0,0 l/m 0 min 2 min 6 W/m 12,9 km/h (3 Bft) 95,74 %
11.01.2023 09:36 10,3 C 9,4 C 6,7 C 97 % 1010,0 hPa 0,0 l/m 0 min 2 min 10 W/m 16,1 km/h (3 Bft) 93,62 %
11.01.2023 09:38 10,3 C 9,4 C 6,7 C 97 % 1010,0 hPa 0,0 l/m 0 min 2 min 12 W/m 19,3 km/h (3 Bft) 97,83 %
11.01.2023 09:40 10,3 C 9,4 C 6,7 C 97 % 1010,0 hPa 0,0 l/m 0 min 2 min 16 W/m 12,9 km/h (3 Bft) 95,74 %
11.01.2023 09:42 10,3 C 9,4 C 6,7 C 97 % 1009,9 hPa 0,0 l/m 0 min 0 min 16 W/m 16,1 km/h (3 Bft) 97,87 %
11.01.2023 09:44 10,3 C 9,4 C 6,7 C 97 % 1009,9 hPa 0,0 l/m 0 min 0 min 18 W/m 12,9 km/h (3 Bft) 97,87 %
11.01.2023 09:46 10,2 C 9,4 C 6,7 C 97 % 1009,9 hPa 0,0 l/m 0 min 0 min 21 W/m 9,7 km/h (2 Bft) 97,87 %
11.01.2023 09:48 10,2 C 9,4 C 6,7 C 97 % 1009,9 hPa 0,0 l/m 0 min 0 min 21 W/m 6,4 km/h (2 Bft) 97,87 %
11.01.2023 09:50 10,2 C 9,4 C 6,7 C 97 % 1010,1 hPa 0,0 l/m 0 min 0 min 18 W/m 9,7 km/h (2 Bft) 93,62 %
11.01.2023 09:52 10,2 C 9,4 C 6,7 C 97 % 1010,1 hPa 0,0 l/m 0 min 0 min 14 W/m 6,4 km/h (2 Bft) 95,65 %
11.01.2023 09:54 10,2 C 9,4 C 6,7 C 97 % 1010,3 hPa 0,0 l/m 0 min 0 min 14 W/m 12,9 km/h (3 Bft) 97,87 %
11.01.2023 09:56 10,2 C 9,4 C 6,7 C 97 % 1010,2 hPa 0,0 l/m 0 min 0 min 17 W/m 6,4 km/h (2 Bft) 95,74 %
11.01.2023 09:58 10,2 C 9,4 C 6,7 C 96 % 1010,2 hPa 0,0 l/m 0 min 0 min 19 W/m 6,4 km/h (2 Bft) 95,74 %
11.01.2023 10:00 10,1 C 9,4 C 6,7 C 96 % 1010,2 hPa 0,0 l/m 0 min 0 min 17 W/m 12,9 km/h (3 Bft) 97,87 %
11.01.2023 10:02 10,1 C 9,4 C 6,7 C 96 % 1010,2 hPa 0,0 l/m 0 min 0 min 17 W/m 6,4 km/h (2 Bft) 95,74 %
11.01.2023 10:04 10,1 C 9,4 C 6,7 C 96 % 1010,4 hPa 0,0 l/m 0 min 0 min 14 W/m 12,9 km/h (3 Bft) 93,48 %
11.01.2023 10:06 10,1 C 9,4 C 6,7 C 96 % 1010,4 hPa 0,0 l/m 0 min 0 min 16 W/m 9,7 km/h (2 Bft) 95,74 %
11.01.2023 10:08 10,1 C 9,4 C 6,7 C 96 % 1010,4 hPa 0,0 l/m 0 min 0 min 17 W/m 12,9 km/h (3 Bft) 97,87 %
11.01.2023 10:10 10,1 C 9,4 C 6,7 C 96 % 1010,5 hPa 0,0 l/m 0 min 0 min 15 W/m 19,3 km/h (3 Bft) 95,74 %
11.01.2023 10:12 10,1 C 9,4 C 6,7 C 96 % 1010,6 hPa 0,0 l/m 0 min 0 min 15 W/m 6,4 km/h (2 Bft) 95,74 %
11.01.2023 10:14 10,1 C 9,4 C 6,7 C 96 % 1010,6 hPa 0,0 l/m 0 min 0 min 22 W/m 6,4 km/h (2 Bft) 95,74 %
11.01.2023 10:16 10,1 C 9,4 C 6,7 C 96 % 1010,6 hPa 0,0 l/m 0 min 0 min 25 W/m 6,4 km/h (2 Bft) 95,74 %
11.01.2023 10:18 10,1 C 9,4 C 6,7 C 96 % 1010,6 hPa 0,0 l/m 0 min 0 min 24 W/m 6,4 km/h (2 Bft) 100,00 %
11.01.2023 10:20 10,1 C 9,4 C 6,7 C 96 % 1010,6 hPa 0,0 l/m 0 min 0 min 23 W/m 12,9 km/h (3 Bft) 97,87 %
11.01.2023 10:22 10,0 C 9,4 C 6,7 C 96 % 1010,7 hPa 0,0 l/m 0 min 0 min 23 W/m 6,4 km/h (2 Bft) 93,62 %
11.01.2023 10:24 10,0 C 9,4 C 6,7 C 96 % 1010,8 hPa 0,0 l/m 0 min 0 min 25 W/m 9,7 km/h (2 Bft) 97,87 %
11.01.2023 10:26 10,0 C 9,4 C 6,7 C 96 % 1010,8 hPa 0,0 l/m 0 min 0 min 27 W/m 12,9 km/h (3 Bft) 97,87 %
11.01.2023 10:28 9,9 C 9,4 C 6,7 C 96 % 1010,7 hPa 0,0 l/m 0 min 0 min 32 W/m 9,7 km/h (2 Bft) 95,74 %
11.01.2023 10:30 9,9 C 9,4 C 6,1 C 96 % 1010,9 hPa 0,0 l/m 0 min 0 min 34 W/m 12,9 km/h (3 Bft) 97,83 %
11.01.2023 10:32 9,9 C 9,4 C 6,1 C 95 % 1010,9 hPa 0,0 l/m 0 min 0 min 34 W/m 16,1 km/h (3 Bft) 97,87 %
11.01.2023 10:34 9,9 C 9,4 C 6,1 C 95 % 1010,9 hPa 0,0 l/m 0 min 0 min 33 W/m 16,1 km/h (3 Bft) 100,00 %
11.01.2023 10:36 9,9 C 8,9 C 6,1 C 95 % 1010,8 hPa 0,0 l/m 0 min 0 min 33 W/m 12,9 km/h (3 Bft) 97,87 %
11.01.2023 10:38 9,9 C 8,9 C 6,1 C 95 % 1010,9 hPa 0,0 l/m 0 min 0 min 32 W/m 9,7 km/h (2 Bft) 100,00 %
11.01.2023 10:40 9,9 C 8,9 C 6,1 C 95 % 1011,0 hPa 0,0 l/m 0 min 0 min 31 W/m 9,7 km/h (2 Bft) 100,00 %
11.01.2023 10:42 9,8 C 8,9 C 6,1 C 95 % 1011,0 hPa 0,0 l/m 0 min 0 min 34 W/m 12,9 km/h (3 Bft) 97,87 %
11.01.2023 10:44 9,8 C 8,9 C 6,1 C 95 % 1010,9 hPa 0,0 l/m 0 min 0 min 35 W/m 12,9 km/h (3 Bft) 95,65 %
11.01.2023 10:46 9,8 C 8,9 C 6,1 C 95 % 1011,0 hPa 0,0 l/m 0 min 0 min 36 W/m 6,4 km/h (2 Bft) 97,87 %
11.01.2023 10:48 9,8 C 8,9 C 6,1 C 95 % 1011,1 hPa 0,0 l/m 0 min 0 min 39 W/m 16,1 km/h (3 Bft) 97,87 %
11.01.2023 10:50 9,8 C 8,9 C 6,1 C 95 % 1011,2 hPa 0,0 l/m 0 min 0 min 38 W/m 19,3 km/h (3 Bft) 95,74 %
11.01.2023 10:52 9,8 C 8,9 C 6,1 C 95 % 1011,3 hPa 0,0 l/m 0 min 0 min 35 W/m 16,1 km/h (3 Bft) 97,87 %
11.01.2023 10:54 9,8 C 8,9 C 6,1 C 95 % 1011,3 hPa 0,0 l/m 0 min 0 min 34 W/m 22,5 km/h (4 Bft) 97,87 %
11.01.2023 10:56 9,8 C 8,9 C 6,1 C 94 % 1011,3 hPa 0,0 l/m 0 min 0 min 31 W/m 19,3 km/h (3 Bft) 95,74 %
11.01.2023 10:58 9,8 C 8,9 C 6,1 C 94 % 1011,3 hPa 0,0 l/m 0 min 0 min 32 W/m 16,1 km/h (3 Bft) 95,65 %
11.01.2023 11:00 9,8 C 8,9 C 6,1 C 94 % 1011,3 hPa 0,0 l/m 0 min 0 min 34 W/m 19,3 km/h (3 Bft) 95,74 %
11.01.2023 11:02 9,8 C 8,9 C 6,1 C 94 % 1011,3 hPa 0,0 l/m 0 min 0 min 36 W/m 16,1 km/h (3 Bft) 97,87 %
11.01.2023 11:04 9,8 C 8,9 C 6,1 C 94 % 1011,4 hPa 0,0 l/m 0 min 0 min 45 W/m 9,7 km/h (2 Bft) 93,62 %
11.01.2023 11:06 9,7 C 8,9 C 6,1 C 94 % 1011,4 hPa 0,0 l/m 0 min 0 min 51 W/m 12,9 km/h (3 Bft) 98,31 %
11.01.2023 11:08 9,7 C 8,9 C 6,1 C 94 % 1011,4 hPa 0,0 l/m 0 min 0 min 55 W/m 12,9 km/h (3 Bft) 91,43 %
11.01.2023 11:10 9,7 C 8,9 C 6,1 C 94 % 1011,5 hPa 0,0 l/m 0 min 0 min 60 W/m 12,9 km/h (3 Bft) 93,62 %
11.01.2023 11:12 9,7 C 8,9 C 6,1 C 94 % 1011,5 hPa 0,0 l/m 0 min 0 min 62 W/m 9,7 km/h (2 Bft) 95,65 %
11.01.2023 11:14 9,7 C 8,9 C 6,1 C 94 % 1011,4 hPa 0,0 l/m 0 min 0 min 57 W/m 12,9 km/h (3 Bft) 97,87 %
11.01.2023 11:16 9,7 C 9,4 C 6,1 C 93 % 1011,4 hPa 0,0 l/m 0 min 0 min 60 W/m 12,9 km/h (3 Bft) 95,74 %
11.01.2023 11:18 9,7 C 9,4 C 6,1 C 93 % 1011,5 hPa 0,0 l/m 0 min 0 min 68 W/m 16,1 km/h (3 Bft) 91,49 %
11.01.2023 11:20 9,8 C 9,4 C 6,1 C 93 % 1011,5 hPa 0,0 l/m 0 min 0 min 73 W/m 6,4 km/h (2 Bft) 97,87 %
11.01.2023 11:22 9,8 C 9,4 C 6,1 C 93 % 1011,5 hPa 0,0 l/m 0 min 0 min 75 W/m 9,7 km/h (2 Bft) 97,87 %
11.01.2023 11:24 9,8 C 9,4 C 6,1 C 93 % 1011,6 hPa 0,0 l/m 0 min 0 min 71 W/m 16,1 km/h (3 Bft) 95,65 %
11.01.2023 11:26 9,8 C 9,4 C 6,1 C 94 % 1011,5 hPa 0,0 l/m 0 min 0 min 77 W/m 16,1 km/h (3 Bft) 97,87 %
11.01.2023 11:28 9,8 C 9,4 C 6,1 C 94 % 1011,5 hPa 0,0 l/m 0 min 0 min 83 W/m 12,9 km/h (3 Bft) 95,74 %
11.01.2023 11:30 9,8 C 9,4 C 6,1 C 94 % 1011,5 hPa 0,0 l/m 0 min 0 min 82 W/m 12,9 km/h (3 Bft) 95,74 %
11.01.2023 11:32 9,8 C 9,4 C 6,1 C 94 % 1011,5 hPa 0,0 l/m 0 min 0 min 79 W/m 9,7 km/h (2 Bft) 97,87 %
11.01.2023 11:34 9,8 C 9,4 C 6,1 C 93 % 1011,5 hPa 0,0 l/m 0 min 0 min 77 W/m 12,9 km/h (3 Bft) 97,87 %
11.01.2023 11:36 9,7 C 9,4 C 6,1 C 93 % 1011,5 hPa 0,0 l/m 0 min 0 min 73 W/m 9,7 km/h (2 Bft) 93,62 %
11.01.2023 11:38 9,7 C 9,4 C 6,1 C 93 % 1011,5 hPa 0,0 l/m 0 min 0 min 62 W/m 12,9 km/h (3 Bft) 100,00 %
11.01.2023 11:40 9,7 C 9,4 C 5,6 C 93 % 1011,5 hPa 0,0 l/m 0 min 0 min 64 W/m 12,9 km/h (3 Bft) 100,00 %
11.01.2023 11:42 9,6 C 9,4 C 5,6 C 93 % 1011,6 hPa 0,0 l/m 0 min 0 min 71 W/m 12,9 km/h (3 Bft) 100,00 %
11.01.2023 11:44 9,6 C 9,4 C 5,6 C 93 % 1011,6 hPa 0,0 l/m 0 min 0 min 78 W/m 16,1 km/h (3 Bft) 97,87 %
11.01.2023 11:46 9,6 C 9,4 C 5,6 C 93 % 1011,7 hPa 0,0 l/m 0 min 0 min 92 W/m 12,9 km/h (3 Bft) 93,62 %
11.01.2023 11:48 9,6 C 10,0 C 5,6 C 92 % 1011,7 hPa 0,0 l/m 0 min 0 min 124 W/m 12,9 km/h (3 Bft) 95,74 %
11.01.2023 11:50 9,7 C 10,0 C 5,6 C 93 % 1011,7 hPa 0,0 l/m 0 min 0 min 84 W/m 6,4 km/h (2 Bft) 97,87 %
11.01.2023 11:52 9,7 C 10,0 C 6,1 C 93 % 1011,7 hPa 0,0 l/m 0 min 0 min 122 W/m 16,1 km/h (3 Bft) 93,48 %
11.01.2023 11:54 9,7 C 10,0 C 6,1 C 93 % 1011,7 hPa 0,0 l/m 2 min 0 min 173 W/m 9,7 km/h (2 Bft) 95,74 %
11.01.2023 11:56 9,8 C 10,6 C 6,1 C 93 % 1011,7 hPa 0,0 l/m 0 min 0 min 130 W/m 9,7 km/h (2 Bft) 97,87 %
11.01.2023 11:58 9,8 C 11,1 C 6,1 C 93 % 1011,7 hPa 0,0 l/m 0 min 0 min 72 W/m 6,4 km/h (2 Bft) 94,00 %
11.01.2023 12:00 9,9 C 10,6 C 6,1 C 92 % 1011,7 hPa 0,0 l/m 0 min 0 min 69 W/m 9,7 km/h (2 Bft) 95,74 %
11.01.2023 12:02 9,9 C 10,6 C 6,1 C 92 % 1011,8 hPa 0,0 l/m 0 min 0 min 61 W/m 12,9 km/h (3 Bft) 96,23 %
11.01.2023 12:04 9,9 C 10,0 C 5,6 C 92 % 1011,8 hPa 0,0 l/m 0 min 0 min 54 W/m 19,3 km/h (3 Bft) 95,74 %
11.01.2023 12:08 9,9 C 10,0 C 5,6 C 92 % 1011,7 hPa 0,0 l/m 0 min 0 min 79 W/m 19,3 km/h (3 Bft) 95,24 %
11.01.2023 12:10 9,8 C 9,4 C 5,6 C 92 % 1011,8 hPa 0,0 l/m 0 min 0 min 51 W/m 16,1 km/h (3 Bft) 95,74 %
11.01.2023 12:12 9,8 C 9,4 C 5,6 C 92 % 1011,6 hPa 0,0 l/m 0 min 0 min 82 W/m 12,9 km/h (3 Bft) 95,65 %
11.01.2023 12:14 9,8 C 10,0 C 5,6 C 91 % 1011,6 hPa 0,0 l/m 0 min 0 min 123 W/m 19,3 km/h (3 Bft) 93,62 %
11.01.2023 12:16 9,8 C 10,6 C 5,6 C 91 % 1011,6 hPa 0,0 l/m 0 min 0 min 68 W/m 12,9 km/h (3 Bft) 95,74 %
11.01.2023 12:18 9,8 C 11,1 C 5,6 C 91 % 1011,6 hPa 0,0 l/m 0 min 0 min 92 W/m 12,9 km/h (3 Bft) 95,74 %
11.01.2023 12:20 9,8 C 11,7 C 5,6 C 91 % 1011,6 hPa 0,0 l/m 0 min 0 min 125 W/m 22,5 km/h (4 Bft) 95,74 %
11.01.2023 12:22 9,9 C 11,7 C 5,6 C 91 % 1011,6 hPa 0,0 l/m 0 min 0 min 163 W/m 12,9 km/h (3 Bft) 97,87 %
11.01.2023 12:24 9,9 C 11,7 C 5,6 C 91 % 1011,6 hPa 0,0 l/m 0 min 0 min 94 W/m 16,1 km/h (3 Bft) 95,65 %
11.01.2023 12:26 9,9 C 11,1 C 5,6 C 91 % 1011,6 hPa 0,0 l/m 0 min 0 min 83 W/m 12,9 km/h (3 Bft) 93,62 %
11.01.2023 12:28 10,0 C 11,1 C 5,6 C 91 % 1011,6 hPa 0,0 l/m 0 min 0 min 74 W/m 29,0 km/h (5 Bft) 97,87 %
11.01.2023 12:30 10,1 C 11,1 C 5,6 C 91 % 1011,7 hPa 0,0 l/m 0 min 0 min 63 W/m 16,1 km/h (3 Bft) 93,62 %
11.01.2023 12:32 10,1 C 11,1 C 5,6 C 90 % 1011,7 hPa 0,0 l/m 0 min 0 min 81 W/m 12,9 km/h (3 Bft) 95,74 %
11.01.2023 12:34 10,1 C 11,1 C 5,6 C 90 % 1011,8 hPa 0,0 l/m 0 min 0 min 84 W/m 25,7 km/h (4 Bft) 97,87 %
11.01.2023 12:36 10,1 C 10,6 C 5,6 C 90 % 1011,8 hPa 0,0 l/m 0 min 0 min 89 W/m 19,3 km/h (3 Bft) 95,65 %
11.01.2023 12:38 10,1 C 10,6 C 5,6 C 90 % 1011,9 hPa 0,0 l/m 0 min 0 min 160 W/m 16,1 km/h (3 Bft) 100,00 %
11.01.2023 12:40 10,1 C 11,7 C 5,6 C 89 % 1011,8 hPa 0,0 l/m 2 min 0 min 170 W/m 16,1 km/h (3 Bft) 100,00 %
11.01.2023 12:42 10,2 C 12,2 C 5,6 C 89 % 1011,8 hPa 0,0 l/m 0 min 0 min 102 W/m 12,9 km/h (3 Bft) 100,00 %
11.01.2023 12:44 10,2 C 12,8 C 5,6 C 89 % 1011,7 hPa 0,0 l/m 0 min 0 min 122 W/m 16,1 km/h (3 Bft) 100,00 %
11.01.2023 12:46 10,3 C 12,2 C 5,6 C 89 % 1011,8 hPa 0,0 l/m 0 min 0 min 145 W/m 19,3 km/h (3 Bft) 95,74 %
11.01.2023 12:48 10,3 C 12,8 C 5,6 C 88 % 1011,8 hPa 0,0 l/m 0 min 0 min 145 W/m 22,5 km/h (4 Bft) 97,87 %
11.01.2023 12:50 10,4 C 12,8 C 5,6 C 88 % 1011,9 hPa 0,0 l/m 0 min 0 min 126 W/m 19,3 km/h (3 Bft) 95,65 %
11.01.2023 12:52 10,5 C 13,3 C 5,6 C 88 % 1011,8 hPa 0,0 l/m 2 min 0 min 237 W/m 16,1 km/h (3 Bft) 97,87 %
11.01.2023 12:54 10,6 C 13,3 C 5,6 C 87 % 1011,8 hPa 0,0 l/m 2 min 0 min 247 W/m 22,5 km/h (4 Bft) 97,87 %
11.01.2023 12:56 10,6 C 14,4 C 5,6 C 87 % 1011,8 hPa 0,0 l/m 2 min 0 min 251 W/m 16,1 km/h (3 Bft) 100,00 %
11.01.2023 12:58 10,7 C 14,4 C 5,6 C 87 % 1011,8 hPa 0,0 l/m 2 min 0 min 301 W/m 22,5 km/h (4 Bft) 100,00 %
11.01.2023 13:00 10,7 C 15,6 C 5,6 C 86 % 1011,8 hPa 0,0 l/m 2 min 0 min 300 W/m 16,1 km/h (3 Bft) 97,87 %
11.01.2023 13:02 10,8 C 15,6 C 5,6 C 86 % 1011,8 hPa 0,0 l/m 2 min 0 min 318 W/m 12,9 km/h (3 Bft) 95,74 %
11.01.2023 13:04 10,9 C 16,1 C 6,1 C 86 % 1011,8 hPa 0,0 l/m 2 min 0 min 338 W/m 19,3 km/h (3 Bft) 100,00 %
11.01.2023 13:06 10,9 C 16,7 C 6,1 C 86 % 1011,9 hPa 0,0 l/m 2 min 0 min 318 W/m 16,1 km/h (3 Bft) 100,00 %
11.01.2023 13:08 11,0 C 16,7 C 6,1 C 86 % 1012,0 hPa 0,0 l/m 2 min 0 min 316 W/m 22,5 km/h (4 Bft) 100,00 %
11.01.2023 13:10 11,0 C 16,1 C 6,1 C 86 % 1012,0 hPa 0,0 l/m 2 min 0 min 317 W/m 22,5 km/h (4 Bft) 100,00 %
11.01.2023 13:12 11,1 C 15,0 C 6,7 C 85 % 1012,1 hPa 0,0 l/m 2 min 0 min 317 W/m 16,1 km/h (3 Bft) 100,00 %
11.01.2023 13:14 11,1 C 15,6 C 6,7 C 85 % 1012,1 hPa 0,0 l/m 2 min 0 min 320 W/m 16,1 km/h (3 Bft) 97,87 %
11.01.2023 13:16 11,1 C 15,6 C 6,7 C 85 % 1012,1 hPa 0,0 l/m 2 min 0 min 316 W/m 16,1 km/h (3 Bft) 97,87 %
11.01.2023 13:18 11,1 C 15,6 C 6,7 C 85 % 1012,1 hPa 0,2 l/m 2 min 0 min 298 W/m 19,3 km/h (3 Bft) 95,65 %
11.01.2023 13:20 11,2 C 15,6 C 7,2 C 85 % 1012,0 hPa 0,0 l/m 2 min 0 min 294 W/m 12,9 km/h (3 Bft) 100,00 %
11.01.2023 13:22 11,2 C 16,1 C 7,2 C 84 % 1012,0 hPa 0,0 l/m 2 min 0 min 287 W/m 16,1 km/h (3 Bft) 100,00 %
11.01.2023 13:24 11,3 C 15,6 C 7,2 C 84 % 1012,0 hPa 0,0 l/m 2 min 0 min 280 W/m 19,3 km/h (3 Bft) 100,00 %
11.01.2023 13:26 11,3 C 16,1 C 7,2 C 84 % 1012,0 hPa 0,0 l/m 2 min 0 min 279 W/m 19,3 km/h (3 Bft) 100,00 %
11.01.2023 13:28 11,2 C 15,6 C 7,2 C 83 % 1011,9 hPa 0,0 l/m 2 min 0 min 282 W/m 22,5 km/h (4 Bft) 100,00 %
11.01.2023 13:30 11,2 C 15,0 C 7,2 C 82 % 1011,9 hPa 0,0 l/m 2 min 0 min 286 W/m 16,1 km/h (3 Bft) 95,74 %
11.01.2023 13:32 11,2 C 15,6 C 6,7 C 82 % 1011,9 hPa 0,0 l/m 2 min 0 min 282 W/m 16,1 km/h (3 Bft) 100,00 %
11.01.2023 13:34 11,2 C 15,6 C 7,2 C 82 % 1011,9 hPa 0,0 l/m 2 min 0 min 280 W/m 22,5 km/h (4 Bft) 100,00 %
11.01.2023 13:36 11,2 C 15,0 C 6,7 C 82 % 1012,0 hPa 0,0 l/m 2 min 0 min 278 W/m 19,3 km/h (3 Bft) 97,87 %
11.01.2023 13:38 11,2 C 15,6 C 6,7 C 81 % 1012,0 hPa 0,0 l/m 2 min 0 min 273 W/m 16,1 km/h (3 Bft) 100,00 %
11.01.2023 13:40 11,1 C 15,0 C 6,7 C 81 % 1012,0 hPa 0,0 l/m 2 min 0 min 270 W/m 19,3 km/h (3 Bft) 97,87 %
11.01.2023 13:42 11,1 C 14,4 C 6,7 C 80 % 1012,0 hPa 0,0 l/m 2 min 0 min 272 W/m 32,2 km/h (5 Bft) 97,87 %
11.01.2023 13:44 11,0 C 14,4 C 6,7 C 81 % 1012,1 hPa 0,0 l/m 2 min 0 min 271 W/m 32,2 km/h (5 Bft) 100,00 %
11.01.2023 13:46 10,9 C 14,4 C 6,7 C 81 % 1012,0 hPa 0,0 l/m 2 min 0 min 267 W/m 22,5 km/h (4 Bft) 97,83 %
11.01.2023 13:48 10,9 C 13,3 C 6,7 C 81 % 1012,0 hPa 0,0 l/m 2 min 0 min 178 W/m 19,3 km/h (3 Bft) 97,87 %
11.01.2023 13:50 10,9 C 12,2 C 6,7 C 81 % 1011,9 hPa 0,0 l/m 0 min 0 min 149 W/m 12,9 km/h (3 Bft) 97,87 %
11.01.2023 13:52 10,8 C 12,8 C 6,7 C 81 % 1012,0 hPa 0,0 l/m 2 min 0 min 172 W/m 22,5 km/h (4 Bft) 97,87 %
11.01.2023 13:54 10,8 C 13,3 C 6,7 C 82 % 1012,0 hPa 0,0 l/m 2 min 0 min 256 W/m 12,9 km/h (3 Bft) 95,74 %
11.01.2023 13:56 10,8 C 13,3 C 6,7 C 82 % 1012,0 hPa 0,0 l/m 2 min 0 min 248 W/m 16,1 km/h (3 Bft) 97,87 %
11.01.2023 13:58 10,8 C 13,9 C 6,7 C 82 % 1012,1 hPa 0,0 l/m 2 min 0 min 253 W/m 12,9 km/h (3 Bft) 97,87 %
11.01.2023 14:00 10,8 C 12,8 C 6,7 C 82 % 1012,1 hPa 0,0 l/m 2 min 0 min 239 W/m 22,5 km/h (4 Bft) 97,83 %
11.01.2023 14:02 10,8 C 12,8 C 6,7 C 82 % 1012,1 hPa 0,0 l/m 2 min 0 min 252 W/m 19,3 km/h (3 Bft) 95,74 %
11.01.2023 14:04 10,9 C 13,3 C 6,7 C 82 % 1012,2 hPa 0,0 l/m 2 min 0 min 249 W/m 9,7 km/h (2 Bft) 97,87 %
11.01.2023 14:06 10,9 C 13,3 C 6,7 C 82 % 1012,2 hPa 0,0 l/m 2 min 0 min 249 W/m 9,7 km/h (2 Bft) 96,61 %
11.01.2023 14:08 11,0 C 13,3 C 6,7 C 82 % 1012,3 hPa 0,0 l/m 2 min 0 min 251 W/m 16,1 km/h (3 Bft) 100,00 %
11.01.2023 14:10 11,1 C 13,3 C 6,7 C 82 % 1012,3 hPa 0,0 l/m 2 min 0 min 257 W/m 19,3 km/h (3 Bft) 93,62 %
11.01.2023 14:12 11,1 C 12,8 C 6,7 C 81 % 1012,3 hPa 0,0 l/m 2 min 0 min 250 W/m 19,3 km/h (3 Bft) 95,65 %
11.01.2023 14:14 11,1 C 12,8 C 7,2 C 81 % 1012,3 hPa 0,0 l/m 2 min 0 min 242 W/m 12,9 km/h (3 Bft) 97,87 %
11.01.2023 14:16 11,1 C 12,2 C 6,7 C 81 % 1012,3 hPa 0,0 l/m 0 min 0 min 135 W/m 9,7 km/h (2 Bft) 97,87 %
11.01.2023 14:18 11,1 C 12,2 C 6,7 C 82 % 1012,3 hPa 0,0 l/m 0 min 0 min 113 W/m 6,4 km/h (2 Bft) 95,74 %
11.01.2023 14:20 11,1 C 11,7 C 6,7 C 82 % 1012,4 hPa 0,0 l/m 0 min 0 min 93 W/m 22,5 km/h (4 Bft) 97,87 %
11.01.2023 14:22 10,9 C 11,1 C 6,7 C 81 % 1012,4 hPa 0,0 l/m 0 min 0 min 79 W/m 29,0 km/h (5 Bft) 97,87 %
11.01.2023 14:24 10,9 C 10,6 C 6,7 C 81 % 1012,3 hPa 0,0 l/m 0 min 0 min 76 W/m 19,3 km/h (3 Bft) 97,87 %
11.01.2023 14:26 10,9 C 10,6 C 6,7 C 81 % 1012,4 hPa 0,0 l/m 0 min 0 min 80 W/m 25,7 km/h (4 Bft) 95,65 %
11.01.2023 14:28 10,8 C 10,6 C 6,7 C 81 % 1012,4 hPa 0,0 l/m 0 min 0 min 66 W/m 16,1 km/h (3 Bft) 97,87 %
11.01.2023 14:30 10,8 C 10,0 C 6,7 C 81 % 1012,4 hPa 0,0 l/m 0 min 0 min 55 W/m 16,1 km/h (3 Bft) 95,74 %
11.01.2023 14:32 10,7 C 10,0 C 6,7 C 81 % 1012,4 hPa 0,0 l/m 0 min 0 min 63 W/m 9,7 km/h (2 Bft) 95,74 %
11.01.2023 14:34 10,7 C 10,0 C 6,7 C 81 % 1012,4 hPa 0,0 l/m 0 min 0 min 71 W/m 12,9 km/h (3 Bft) 95,74 %
11.01.2023 14:36 10,6 C 10,0 C 6,7 C 81 % 1012,4 hPa 0,0 l/m 0 min 0 min 79 W/m 19,3 km/h (3 Bft) 97,87 %
11.01.2023 14:38 10,6 C 10,0 C 6,7 C 81 % 1012,4 hPa 0,0 l/m 0 min 0 min 83 W/m 16,1 km/h (3 Bft) 97,87 %
11.01.2023 14:40 10,6 C 10,0 C 6,7 C 81 % 1012,4 hPa 0,0 l/m 0 min 0 min 85 W/m 22,5 km/h (4 Bft) 93,48 %
11.01.2023 14:42 10,5 C 10,6 C 6,7 C 81 % 1012,3 hPa 0,0 l/m 0 min 0 min 100 W/m 19,3 km/h (3 Bft) 95,74 %
11.01.2023 14:44 10,5 C 10,6 C 6,7 C 81 % 1012,4 hPa 0,0 l/m 2 min 0 min 167 W/m 29,0 km/h (5 Bft) 91,49 %
11.01.2023 14:46 10,6 C 10,6 C 6,7 C 80 % 1012,4 hPa 0,0 l/m 2 min 0 min 153 W/m 22,5 km/h (4 Bft) 97,87 %
11.01.2023 14:48 10,6 C 10,6 C 6,7 C 80 % 1012,4 hPa 0,0 l/m 0 min 0 min 69 W/m 9,7 km/h (2 Bft) 95,74 %
11.01.2023 14:50 10,6 C 10,6 C 6,7 C 81 % 1012,4 hPa 0,0 l/m 0 min 0 min 101 W/m 16,1 km/h (3 Bft) 91,49 %
11.01.2023 14:52 10,6 C 11,1 C 6,7 C 81 % 1012,4 hPa 0,0 l/m 2 min 0 min 146 W/m 12,9 km/h (3 Bft) 95,74 %
11.01.2023 14:54 10,6 C 10,6 C 6,7 C 80 % 1012,4 hPa 0,0 l/m 2 min 0 min 130 W/m 22,5 km/h (4 Bft) 95,65 %
11.01.2023 14:56 10,6 C 11,1 C 6,7 C 80 % 1012,4 hPa 0,0 l/m 2 min 0 min 145 W/m 12,9 km/h (3 Bft) 95,74 %
11.01.2023 14:58 10,6 C 12,2 C 6,7 C 81 % 1012,4 hPa 0,0 l/m 2 min 0 min 167 W/m 16,1 km/h (3 Bft) 95,74 %
11.01.2023 15:00 10,6 C 11,7 C 6,7 C 80 % 1012,5 hPa 0,0 l/m 2 min 0 min 143 W/m 12,9 km/h (3 Bft) 95,74 %
11.01.2023 15:02 10,7 C 11,1 C 6,7 C 80 % 1012,5 hPa 0,0 l/m 0 min 0 min 72 W/m 19,3 km/h (3 Bft) 95,74 %
11.01.2023 15:04 10,6 C 10,6 C 6,7 C 80 % 1012,5 hPa 0,0 l/m 0 min 0 min 54 W/m 12,9 km/h (3 Bft) 95,74 %
11.01.2023 15:06 10,6 C 10,0 C 6,7 C 80 % 1012,6 hPa 0,0 l/m 0 min 0 min 52 W/m 12,9 km/h (3 Bft) 95,92 %
11.01.2023 15:08 10,6 C 10,0 C 6,7 C 80 % 1012,6 hPa 0,0 l/m 0 min 0 min 86 W/m 12,9 km/h (3 Bft) 95,74 %
11.01.2023 15:10 10,5 C 10,0 C 6,7 C 80 % 1012,5 hPa 0,0 l/m 2 min 0 min 115 W/m 16,1 km/h (3 Bft) 95,74 %
11.01.2023 15:12 10,5 C 10,0 C 6,7 C 80 % 1012,5 hPa 0,0 l/m 2 min 0 min 115 W/m 25,7 km/h (4 Bft) 97,87 %
11.01.2023 15:14 10,4 C 10,0 C 6,7 C 80 % 1012,5 hPa 0,0 l/m 2 min 0 min 125 W/m 16,1 km/h (3 Bft) 95,74 %
11.01.2023 15:16 10,5 C 10,0 C 6,7 C 80 % 1012,5 hPa 0,0 l/m 2 min 0 min 117 W/m 19,3 km/h (3 Bft) 97,87 %
11.01.2023 15:18 10,5 C 10,0 C 6,7 C 80 % 1012,6 hPa 0,0 l/m 2 min 0 min 93 W/m 12,9 km/h (3 Bft) 95,74 %
11.01.2023 15:20 10,5 C 10,0 C 6,7 C 81 % 1012,6 hPa 0,0 l/m 2 min 0 min 129 W/m 12,9 km/h (3 Bft) 95,65 %
11.01.2023 15:22 10,5 C 10,0 C 6,7 C 81 % 1012,7 hPa 0,0 l/m 2 min 0 min 158 W/m 12,9 km/h (3 Bft) 95,74 %
11.01.2023 15:24 10,6 C 10,6 C 6,7 C 81 % 1012,6 hPa 0,0 l/m 2 min 0 min 147 W/m 9,7 km/h (2 Bft) 97,87 %
11.01.2023 15:26 10,6 C 10,6 C 6,7 C 80 % 1012,6 hPa 0,0 l/m 2 min 0 min 123 W/m 25,7 km/h (4 Bft) 97,87 %
11.01.2023 15:28 10,6 C 10,6 C 6,7 C 80 % 1012,6 hPa 0,0 l/m 2 min 0 min 92 W/m 12,9 km/h (3 Bft) 97,87 %
11.01.2023 15:30 10,6 C 10,6 C 6,7 C 80 % 1012,7 hPa 0,0 l/m 2 min 0 min 82 W/m 19,3 km/h (3 Bft) 97,87 %
11.01.2023 15:32 10,6 C 10,6 C 6,7 C 80 % 1012,7 hPa 0,0 l/m 2 min 0 min 83 W/m 12,9 km/h (3 Bft) 97,87 %
11.01.2023 15:34 10,6 C 10,0 C 6,7 C 80 % 1012,8 hPa 0,0 l/m 0 min 0 min 75 W/m 12,9 km/h (3 Bft) 97,83 %
11.01.2023 15:36 10,6 C 10,0 C 6,7 C 80 % 1012,8 hPa 0,0 l/m 0 min 0 min 64 W/m 19,3 km/h (3 Bft) 100,00 %
11.01.2023 15:38 10,6 C 10,0 C 6,7 C 79 % 1012,8 hPa 0,0 l/m 0 min 0 min 72 W/m 19,3 km/h (3 Bft) 100,00 %
11.01.2023 15:40 10,6 C 10,0 C 6,7 C 79 % 1012,8 hPa 0,0 l/m 2 min 0 min 91 W/m 9,7 km/h (2 Bft) 100,00 %
11.01.2023 15:42 10,6 C 10,6 C 6,7 C 79 % 1012,8 hPa 0,0 l/m 2 min 0 min 96 W/m 19,3 km/h (3 Bft) 100,00 %
11.01.2023 15:44 10,6 C 10,0 C 6,7 C 79 % 1012,8 hPa 0,0 l/m 2 min 0 min 88 W/m 25,7 km/h (4 Bft) 100,00 %
11.01.2023 15:46 10,6 C 10,0 C 6,7 C 79 % 1012,8 hPa 0,0 l/m 2 min 0 min 75 W/m 22,5 km/h (4 Bft) 100,00 %
11.01.2023 15:48 10,6 C 10,0 C 6,7 C 79 % 1012,9 hPa 0,0 l/m 2 min 0 min 63 W/m 16,1 km/h (3 Bft) 100,00 %
11.01.2023 15:50 10,6 C 10,0 C 6,7 C 79 % 1012,8 hPa 0,0 l/m 0 min 0 min 52 W/m 12,9 km/h (3 Bft) 97,87 %
11.01.2023 15:52 10,6 C 10,0 C 6,7 C 78 % 1012,8 hPa 0,0 l/m 0 min 0 min 33 W/m 25,7 km/h (4 Bft) 100,00 %
11.01.2023 15:54 10,5 C 10,0 C 6,7 C 78 % 1012,9 hPa 0,0 l/m 0 min 0 min 37 W/m 16,1 km/h (3 Bft) 100,00 %
11.01.2023 15:56 10,4 C 10,0 C 6,1 C 78 % 1012,8 hPa 0,0 l/m 0 min 0 min 41 W/m 19,3 km/h (3 Bft) 100,00 %
11.01.2023 15:58 10,4 C 10,0 C 6,1 C 78 % 1012,8 hPa 0,0 l/m 0 min 0 min 44 W/m 19,3 km/h (3 Bft) 100,00 %
11.01.2023 16:00 10,4 C 10,0 C 6,1 C 78 % 1012,8 hPa 0,0 l/m 0 min 0 min 38 W/m 12,9 km/h (3 Bft) 100,00 %
11.01.2023 16:02 10,4 C 9,4 C 6,1 C 79 % 1012,8 hPa 0,0 l/m 0 min 0 min 33 W/m 12,9 km/h (3 Bft) 100,00 %
11.01.2023 16:04 10,3 C 9,4 C 6,1 C 79 % 1012,8 hPa 0,0 l/m 2 min 0 min 47 W/m 9,7 km/h (2 Bft) 100,00 %
11.01.2023 16:06 10,3 C 9,4 C 6,1 C 79 % 1012,7 hPa 0,0 l/m 2 min 0 min 55 W/m 12,9 km/h (3 Bft) 97,87 %
11.01.2023 16:08 10,3 C 9,4 C 6,1 C 79 % 1012,7 hPa 0,0 l/m 0 min 0 min 37 W/m 9,7 km/h (2 Bft) 100,00 %
11.01.2023 16:10 10,3 C 9,4 C 6,1 C 79 % 1012,7 hPa 0,0 l/m 0 min 0 min 27 W/m 6,4 km/h (2 Bft) 100,00 %
11.01.2023 16:12 10,2 C 9,4 C 6,1 C 79 % 1012,8 hPa 0,0 l/m 0 min 0 min 25 W/m 19,3 km/h (3 Bft) 100,00 %
11.01.2023 16:14 10,2 C 9,4 C 6,1 C 79 % 1012,7 hPa 0,0 l/m 0 min 0 min 24 W/m 12,9 km/h (3 Bft) 100,00 %
11.01.2023 16:16 10,2 C 9,4 C 6,1 C 79 % 1012,7 hPa 0,0 l/m 0 min 0 min 22 W/m 25,7 km/h (4 Bft) 100,00 %
11.01.2023 16:18 10,2 C 9,4 C 6,1 C 79 % 1012,8 hPa 0,0 l/m 0 min 0 min 21 W/m 22,5 km/h (4 Bft) 100,00 %
11.01.2023 16:20 10,1 C 9,4 C 6,1 C 78 % 1012,8 hPa 0,0 l/m 0 min 0 min 19 W/m 19,3 km/h (3 Bft) 100,00 %
11.01.2023 16:22 10,1 C 9,4 C 6,1 C 78 % 1012,9 hPa 0,0 l/m 0 min 0 min 18 W/m 19,3 km/h (3 Bft) 100,00 %
11.01.2023 16:24 10,1 C 9,4 C 6,1 C 79 % 1012,9 hPa 0,0 l/m 0 min 0 min 17 W/m 22,5 km/h (4 Bft) 97,87 %
11.01.2023 16:26 10,1 C 9,4 C 6,1 C 79 % 1013,0 hPa 0,0 l/m 0 min 0 min 15 W/m 19,3 km/h (3 Bft) 93,62 %
11.01.2023 16:28 10,1 C 9,4 C 5,6 C 79 % 1013,0 hPa 0,0 l/m 0 min 0 min 11 W/m 22,5 km/h (4 Bft) 97,87 %
11.01.2023 16:30 10,1 C 8,9 C 5,6 C 79 % 1013,0 hPa 0,0 l/m 0 min 0 min 8 W/m 16,1 km/h (3 Bft) 91,49 %
11.01.2023 16:32 10,0 C 8,9 C 5,6 C 79 % 1013,0 hPa 0,0 l/m 0 min 0 min 7 W/m 12,9 km/h (3 Bft) 85,11 %
11.01.2023 16:34 10,0 C 8,9 C 5,6 C 80 % 1012,9 hPa 0,0 l/m 0 min 0 min 8 W/m 16,1 km/h (3 Bft) 95,74 %
11.01.2023 16:36 9,9 C 9,4 C 5,6 C 79 % 1012,9 hPa 0,0 l/m 0 min 0 min 7 W/m 22,5 km/h (4 Bft) 95,65 %
11.01.2023 16:38 9,9 C 9,4 C 6,1 C 79 % 1012,9 hPa 0,0 l/m 0 min 0 min 7 W/m 12,9 km/h (3 Bft) 95,74 %
11.01.2023 16:40 9,9 C 9,4 C 5,6 C 79 % 1012,9 hPa 0,0 l/m 0 min 0 min 6 W/m 9,7 km/h (2 Bft) 97,87 %
11.01.2023 16:42 9,9 C 8,9 C 5,6 C 80 % 1012,9 hPa 0,0 l/m 0 min 0 min 5 W/m 16,1 km/h (3 Bft) 93,62 %
11.01.2023 16:44 9,9 C 8,9 C 5,6 C 80 % 1012,9 hPa 0,0 l/m 0 min 0 min 5 W/m 12,9 km/h (3 Bft) 95,74 %
11.01.2023 16:46 9,9 C 8,9 C 5,6 C 80 % 1012,9 hPa 0,0 l/m 0 min 0 min 2 W/m 16,1 km/h (3 Bft) 95,74 %
11.01.2023 16:48 9,9 C 8,9 C 5,6 C 80 % 1012,9 hPa 0,0 l/m 0 min 0 min 0 W/m 19,3 km/h (3 Bft) 89,36 %
11.01.2023 16:50 9,9 C 8,9 C 5,6 C 80 % 1012,9 hPa 0,0 l/m 0 min 0 min 0 W/m 12,9 km/h (3 Bft) 95,65 %
11.01.2023 16:52 9,9 C 8,9 C 5,6 C 80 % 1012,9 hPa 0,0 l/m 0 min 0 min 0 W/m 19,3 km/h (3 Bft) 95,74 %
11.01.2023 16:54 9,9 C 8,9 C 5,6 C 80 % 1012,9 hPa 0,0 l/m 0 min 0 min 0 W/m 19,3 km/h (3 Bft) 91,49 %
11.01.2023 16:56 9,8 C 8,9 C 5,6 C 80 % 1013,0 hPa 0,0 l/m 0 min 0 min 0 W/m 25,7 km/h (4 Bft) 93,62 %
11.01.2023 16:58 9,8 C 8,9 C 5,6 C 80 % 1013,0 hPa 0,0 l/m 0 min 0 min 0 W/m 25,7 km/h (4 Bft) 95,74 %
11.01.2023 17:00 9,8 C 8,9 C 5,6 C 80 % 1013,0 hPa 0,0 l/m 0 min 0 min 0 W/m 19,3 km/h (3 Bft) 93,62 %
11.01.2023 17:02 9,8 C 8,9 C 5,6 C 80 % 1013,0 hPa 0,0 l/m 0 min 0 min 0 W/m 16,1 km/h (3 Bft) 95,65 %
11.01.2023 17:04 9,8 C 8,9 C 5,6 C 80 % 1013,0 hPa 0,0 l/m 0 min 0 min 0 W/m 22,5 km/h (4 Bft) 95,74 %
11.01.2023 17:06 9,8 C 8,9 C 5,6 C 80 % 1013,0 hPa 0,0 l/m 0 min 0 min 0 W/m 32,2 km/h (5 Bft) 93,62 %
11.01.2023 17:08 9,8 C 9,4 C 5,6 C 80 % 1013,0 hPa 0,0 l/m 0 min 0 min 0 W/m 32,2 km/h (5 Bft) 93,62 %
11.01.2023 17:10 9,9 C 9,4 C 5,6 C 80 % 1013,0 hPa 0,0 l/m 0 min 0 min 0 W/m 57,9 km/h (7 Bft) 93,62 %
11.01.2023 17:15 9,9 C 9,4 C 5,6 C 79 % 1013,0 hPa 0,0 l/m 0 min 0 min 0 W/m 29,0 km/h (5 Bft) 96,92 %
11.01.2023 17:16 10,0 C 9,4 C 5,6 C 79 % 1013,0 hPa 0,0 l/m 0 min 0 min 0 W/m 22,5 km/h (4 Bft) 100,00 %
11.01.2023 17:18 10,0 C 8,9 C 5,6 C 79 % 1013,1 hPa 0,0 l/m 0 min 0 min 0 W/m 16,1 km/h (3 Bft) 93,62 %
11.01.2023 17:20 9,9 C 8,9 C 5,6 C 79 % 1013,1 hPa 0,0 l/m 0 min 0 min 0 W/m 19,3 km/h (3 Bft) 97,87 %
11.01.2023 17:22 9,9 C 8,9 C 5,6 C 79 % 1013,1 hPa 0,0 l/m 0 min 0 min 0 W/m 22,5 km/h (4 Bft) 97,87 %
11.01.2023 17:24 9,9 C 8,9 C 5,6 C 79 % 1013,2 hPa 0,0 l/m 0 min 0 min 0 W/m 32,2 km/h (5 Bft) 93,62 %
11.01.2023 17:26 9,9 C 8,9 C 5,6 C 79 % 1013,3 hPa 0,0 l/m 0 min 0 min 0 W/m 29,0 km/h (5 Bft) 95,74 %
11.01.2023 17:28 9,8 C 8,9 C 5,6 C 79 % 1013,3 hPa 0,0 l/m 0 min 0 min 0 W/m 35,4 km/h (5 Bft) 97,87 %
11.01.2023 17:30 9,8 C 8,9 C 5,6 C 79 % 1013,3 hPa 0,0 l/m 0 min 0 min 0 W/m 25,7 km/h (4 Bft) 95,65 %
11.01.2023 17:32 9,8 C 8,9 C 5,6 C 79 % 1013,4 hPa 0,0 l/m 0 min 0 min 0 W/m 35,4 km/h (5 Bft) 97,87 %
11.01.2023 17:34 9,8 C 8,9 C 5,6 C 79 % 1013,4 hPa 0,0 l/m 0 min 0 min 0 W/m 22,5 km/h (4 Bft) 97,87 %
11.01.2023 17:36 9,7 C 8,3 C 5,6 C 80 % 1013,4 hPa 0,0 l/m 0 min 0 min 0 W/m 19,3 km/h (3 Bft) 94,29 %
11.01.2023 17:38 9,7 C 8,3 C 5,6 C 80 % 1013,3 hPa 0,0 l/m 0 min 0 min 0 W/m 19,3 km/h (3 Bft) 98,31 %
11.01.2023 17:40 9,6 C 8,3 C 5,6 C 80 % 1013,4 hPa 0,0 l/m 0 min 0 min 0 W/m 19,3 km/h (3 Bft) 94,29 %
11.01.2023 17:42 9,6 C 8,3 C 5,6 C 80 % 1013,4 hPa 0,0 l/m 0 min 0 min 0 W/m 25,7 km/h (4 Bft) 93,22 %
11.01.2023 17:44 9,6 C 8,3 C 5,0 C 80 % 1013,5 hPa 0,0 l/m 0 min 0 min 0 W/m 16,1 km/h (3 Bft) 97,83 %
11.01.2023 17:46 9,4 C 8,3 C 5,0 C 80 % 1013,5 hPa 0,0 l/m 0 min 0 min 0 W/m 12,9 km/h (3 Bft) 97,22 %
11.01.2023 17:48 9,4 C 8,3 C 5,0 C 80 % 1013,6 hPa 0,0 l/m 0 min 0 min 0 W/m 12,9 km/h (3 Bft) 96,55 %
11.01.2023 17:50 9,4 C 8,3 C 5,0 C 81 % 1013,6 hPa 0,0 l/m 0 min 0 min 0 W/m 12,9 km/h (3 Bft) 97,14 %
11.01.2023 17:52 9,3 C 8,3 C 5,0 C 81 % 1013,7 hPa 0,0 l/m 0 min 0 min 0 W/m 12,9 km/h (3 Bft) 95,74 %
11.01.2023 17:54 9,3 C 8,3 C 5,0 C 81 % 1013,7 hPa 0,0 l/m 0 min 0 min 0 W/m 19,3 km/h (3 Bft) 97,87 %
11.01.2023 17:56 9,3 C 8,3 C 5,0 C 81 % 1013,7 hPa 0,0 l/m 0 min 0 min 0 W/m 22,5 km/h (4 Bft) 97,87 %
11.01.2023 17:58 9,3 C 8,3 C 5,0 C 81 % 1013,7 hPa 0,0 l/m 0 min 0 min 0 W/m 19,3 km/h (3 Bft) 97,87 %
11.01.2023 18:00 9,2 C 8,3 C 5,0 C 82 % 1013,8 hPa 0,0 l/m 0 min 0 min 0 W/m 22,5 km/h (4 Bft) 97,87 %
11.01.2023 18:02 9,2 C 8,3 C 5,0 C 82 % 1013,8 hPa 0,0 l/m 0 min 0 min 0 W/m 19,3 km/h (3 Bft) 100,00 %
11.01.2023 18:04 9,2 C 8,3 C 5,0 C 82 % 1013,8 hPa 0,0 l/m 0 min 0 min 0 W/m 12,9 km/h (3 Bft) 97,87 %
11.01.2023 18:08 9,2 C 8,3 C 5,0 C 82 % 1013,9 hPa 0,0 l/m 0 min 0 min 0 W/m 19,3 km/h (3 Bft) 98,94 %
11.01.2023 18:10 9,2 C 8,3 C 5,0 C 82 % 1014,0 hPa 0,0 l/m 0 min 0 min 0 W/m 22,5 km/h (4 Bft) 100,00 %
11.01.2023 18:12 9,2 C 8,3 C 5,0 C 82 % 1014,1 hPa 0,0 l/m 0 min 0 min 0 W/m 3,2 km/h (1 Bft) 100,00 %
11.01.2023 18:14 9,1 C 8,3 C 5,0 C 83 % 1014,1 hPa 0,0 l/m 0 min 0 min 0 W/m 16,1 km/h (3 Bft) 100,00 %
11.01.2023 18:16 9,2 C 8,3 C 5,0 C 83 % 1014,1 hPa 0,0 l/m 0 min 0 min 0 W/m 32,2 km/h (5 Bft) 97,87 %
11.01.2023 18:18 9,2 C 8,3 C 5,0 C 83 % 1014,1 hPa 0,0 l/m 0 min 0 min 0 W/m 22,5 km/h (4 Bft) 100,00 %
11.01.2023 18:20 9,2 C 8,3 C 5,0 C 83 % 1014,1 hPa 0,0 l/m 0 min 0 min 0 W/m 38,6 km/h (5 Bft) 100,00 %
11.01.2023 18:22 9,2 C 8,3 C 5,0 C 84 % 1014,0 hPa 0,0 l/m 0 min 0 min 0 W/m 19,3 km/h (3 Bft) 100,00 %
11.01.2023 18:24 9,2 C 8,3 C 5,0 C 84 % 1013,9 hPa 0,0 l/m 0 min 0 min 0 W/m 25,7 km/h (4 Bft) 100,00 %
11.01.2023 18:26 9,1 C 8,3 C 5,0 C 84 % 1014,0 hPa 0,0 l/m 0 min 0 min 0 W/m 29,0 km/h (5 Bft) 100,00 %
11.01.2023 18:28 9,1 C 8,3 C 5,0 C 84 % 1014,0 hPa 0,0 l/m 0 min 0 min 0 W/m 19,3 km/h (3 Bft) 97,87 %
11.01.2023 18:30 9,1 C 8,3 C 5,0 C 84 % 1014,0 hPa 0,0 l/m 0 min 0 min 0 W/m 19,3 km/h (3 Bft) 100,00 %
11.01.2023 18:32 9,1 C 8,3 C 5,0 C 84 % 1013,9 hPa 0,0 l/m 0 min 0 min 0 W/m 22,5 km/h (4 Bft) 100,00 %
11.01.2023 18:34 9,1 C 8,3 C 5,0 C 84 % 1013,9 hPa 0,0 l/m 0 min 0 min 0 W/m 29,0 km/h (5 Bft) 100,00 %
11.01.2023 18:36 9,1 C 8,3 C 5,0 C 84 % 1013,9 hPa 0,0 l/m 0 min 0 min 0 W/m 29,0 km/h (5 Bft) 100,00 %
11.01.2023 18:38 9,1 C 8,3 C 5,0 C 84 % 1013,9 hPa 0,0 l/m 0 min 0 min 0 W/m 35,4 km/h (5 Bft) 100,00 %
11.01.2023 18:40 9,1 C 8,3 C 5,0 C 84 % 1013,9 hPa 0,0 l/m 0 min 0 min 0 W/m 19,3 km/h (3 Bft) 97,87 %
11.01.2023 18:42 9,1 C 8,3 C 5,0 C 84 % 1013,9 hPa 0,0 l/m 0 min 0 min 0 W/m 16,1 km/h (3 Bft) 97,87 %
11.01.2023 18:44 9,0 C 7,8 C 5,0 C 84 % 1013,9 hPa 0,0 l/m 0 min 0 min 0 W/m 32,2 km/h (5 Bft) 97,87 %
11.01.2023 18:46 8,9 C 7,8 C 5,0 C 84 % 1013,8 hPa 0,0 l/m 0 min 0 min 0 W/m 16,1 km/h (3 Bft) 97,83 %
11.01.2023 18:48 8,9 C 7,8 C 5,0 C 84 % 1013,9 hPa 0,0 l/m 0 min 0 min 0 W/m 22,5 km/h (4 Bft) 97,87 %
11.01.2023 18:50 8,9 C 7,8 C 5,0 C 84 % 1013,8 hPa 0,0 l/m 0 min 0 min 0 W/m 29,0 km/h (5 Bft) 97,87 %
11.01.2023 18:52 8,8 C 7,8 C 5,0 C 84 % 1013,8 hPa 0,0 l/m 0 min 0 min 0 W/m 29,0 km/h (5 Bft) 97,87 %
11.01.2023 18:54 8,8 C 7,8 C 5,0 C 84 % 1013,8 hPa 0,0 l/m 0 min 0 min 0 W/m 25,7 km/h (4 Bft) 97,87 %
11.01.2023 18:56 8,8 C 7,8 C 5,0 C 84 % 1013,9 hPa 0,0 l/m 0 min 0 min 0 W/m 29,0 km/h (5 Bft) 97,87 %
11.01.2023 18:58 8,8 C 7,8 C 5,0 C 84 % 1013,8 hPa 0,0 l/m 0 min 0 min 0 W/m 32,2 km/h (5 Bft) 97,83 %
11.01.2023 19:00 8,8 C 7,8 C 5,0 C 84 % 1013,9 hPa 0,0 l/m 0 min 0 min 0 W/m 32,2 km/h (5 Bft) 97,87 %
11.01.2023 19:02 8,8 C 7,8 C 5,0 C 84 % 1013,9 hPa 0,0 l/m 0 min 0 min 0 W/m 25,7 km/h (4 Bft) 97,87 %
11.01.2023 19:04 8,8 C 7,8 C 5,0 C 84 % 1013,9 hPa 0,0 l/m 0 min 0 min 0 W/m 19,3 km/h (3 Bft) 97,87 %
11.01.2023 19:06 8,8 C 7,8 C 5,0 C 84 % 1013,9 hPa 0,0 l/m 0 min 0 min 0 W/m 38,6 km/h (5 Bft) 97,87 %
11.01.2023 19:08 8,8 C 7,8 C 5,0 C 84 % 1013,9 hPa 0,0 l/m 0 min 0 min 0 W/m 41,8 km/h (6 Bft) 97,87 %
11.01.2023 19:10 8,8 C 7,8 C 5,0 C 84 % 1014,1 hPa 0,0 l/m 0 min 0 min 0 W/m 45,1 km/h (6 Bft) 97,83 %
11.01.2023 19:12 8,8 C 7,8 C 5,0 C 84 % 1014,0 hPa 0,0 l/m 0 min 0 min 0 W/m 22,5 km/h (4 Bft) 97,22 %
11.01.2023 19:14 8,8 C 7,8 C 5,0 C 84 % 1013,9 hPa 0,0 l/m 0 min 0 min 0 W/m 54,7 km/h (7 Bft) 100,00 %
11.01.2023 19:16 8,8 C 7,8 C 5,0 C 83 % 1013,8 hPa 0,0 l/m 0 min 0 min 0 W/m 32,2 km/h (5 Bft) 97,87 %
11.01.2023 19:18 8,8 C 7,8 C 5,0 C 83 % 1013,9 hPa 0,0 l/m 0 min 0 min 0 W/m 35,4 km/h (5 Bft) 100,00 %
11.01.2023 19:20 8,8 C 7,8 C 5,0 C 83 % 1013,9 hPa 0,0 l/m 0 min 0 min 0 W/m 45,1 km/h (6 Bft) 100,00 %
11.01.2023 19:22 8,8 C 7,8 C 5,0 C 83 % 1013,9 hPa 0,0 l/m 0 min 0 min 0 W/m 32,2 km/h (5 Bft) 93,62 %
11.01.2023 19:24 8,8 C 7,8 C 5,0 C 83 % 1013,9 hPa 0,0 l/m 0 min 0 min 0 W/m 35,4 km/h (5 Bft) 97,83 %
11.01.2023 19:26 8,8 C 7,8 C 5,0 C 83 % 1013,8 hPa 0,0 l/m 0 min 0 min 0 W/m 25,7 km/h (4 Bft) 95,74 %
11.01.2023 19:28 8,8 C 7,8 C 5,0 C 83 % 1013,8 hPa 0,0 l/m 0 min 0 min 0 W/m 32,2 km/h (5 Bft) 97,87 %
11.01.2023 19:30 8,8 C 7,8 C 5,0 C 83 % 1013,9 hPa 0,0 l/m 0 min 0 min 0 W/m 25,7 km/h (4 Bft) 97,87 %
11.01.2023 19:32 8,8 C 7,8 C 5,0 C 83 % 1013,9 hPa 0,0 l/m 0 min 0 min 0 W/m 22,5 km/h (4 Bft) 97,87 %
11.01.2023 19:34 8,8 C 7,8 C 4,4 C 83 % 1013,8 hPa 0,0 l/m 0 min 0 min 0 W/m 22,5 km/h (4 Bft) 97,87 %
11.01.2023 19:36 8,7 C 7,8 C 4,4 C 83 % 1013,8 hPa 0,0 l/m 0 min 0 min 0 W/m 29,0 km/h (5 Bft) 95,65 %
11.01.2023 19:38 8,7 C 7,8 C 4,4 C 83 % 1013,8 hPa 0,0 l/m 0 min 0 min 0 W/m 22,5 km/h (4 Bft) 95,74 %
11.01.2023 19:40 8,7 C 7,8 C 4,4 C 83 % 1013,8 hPa 0,0 l/m 0 min 0 min 0 W/m 19,3 km/h (3 Bft) 97,87 %
11.01.2023 19:42 8,7 C 7,8 C 4,4 C 83 % 1013,9 hPa 0,0 l/m 0 min 0 min 0 W/m 25,7 km/h (4 Bft) 97,87 %
11.01.2023 19:44 8,7 C 7,8 C 4,4 C 83 % 1013,8 hPa 0,0 l/m 0 min 0 min 0 W/m 29,0 km/h (5 Bft) 95,74 %
11.01.2023 19:46 8,7 C 7,8 C 4,4 C 83 % 1013,8 hPa 0,0 l/m 0 min 0 min 0 W/m 32,2 km/h (5 Bft) 95,74 %
11.01.2023 19:48 8,7 C 7,8 C 4,4 C 83 % 1013,7 hPa 0,0 l/m 0 min 0 min 0 W/m 29,0 km/h (5 Bft) 93,48 %
11.01.2023 19:50 8,7 C 7,8 C 4,4 C 83 % 1013,7 hPa 0,0 l/m 0 min 0 min 0 W/m 16,1 km/h (3 Bft) 91,49 %
11.01.2023 19:52 8,7 C 7,8 C 4,4 C 83 % 1013,6 hPa 0,0 l/m 0 min 0 min 0 W/m 22,5 km/h (4 Bft) 95,74 %
11.01.2023 19:54 8,7 C 7,8 C 4,4 C 83 % 1013,6 hPa 0,0 l/m 0 min 0 min 0 W/m 32,2 km/h (5 Bft) 95,74 %
11.01.2023 19:56 8,6 C 7,8 C 4,4 C 83 % 1013,6 hPa 0,0 l/m 0 min 0 min 0 W/m 32,2 km/h (5 Bft) 93,62 %
11.01.2023 19:58 8,6 C 7,8 C 4,4 C 83 % 1013,6 hPa 0,0 l/m 0 min 0 min 0 W/m 29,0 km/h (5 Bft) 52,17 %
11.01.2023 20:00 8,7 C 7,8 C 4,4 C 83 % 1013,5 hPa 0,0 l/m 0 min 0 min 0 W/m 25,7 km/h (4 Bft) 95,65 %
11.01.2023 20:02 8,7 C 7,8 C 4,4 C 83 % 1013,5 hPa 0,0 l/m 0 min 0 min 0 W/m 32,2 km/h (5 Bft) 95,65 %
11.01.2023 20:04 8,7 C 7,8 C 4,4 C 83 % 1013,5 hPa 0,0 l/m 0 min 0 min 0 W/m 29,0 km/h (5 Bft) 95,74 %
11.01.2023 20:06 8,6 C 7,8 C 4,4 C 83 % 1013,4 hPa 0,0 l/m 0 min 0 min 0 W/m 35,4 km/h (5 Bft) 95,74 %
11.01.2023 20:08 8,6 C 7,8 C 4,4 C 83 % 1013,4 hPa 0,0 l/m 0 min 0 min 0 W/m 22,5 km/h (4 Bft) 93,62 %
11.01.2023 20:10 8,6 C 7,8 C 4,4 C 83 % 1013,4 hPa 0,0 l/m 0 min 0 min 0 W/m 35,4 km/h (5 Bft) 95,74 %
11.01.2023 20:12 8,6 C 7,8 C 4,4 C 83 % 1013,4 hPa 0,0 l/m 0 min 0 min 0 W/m 32,2 km/h (5 Bft) 97,87 %
11.01.2023 20:14 8,7 C 7,8 C 4,4 C 83 % 1013,4 hPa 0,0 l/m 0 min 0 min 0 W/m 29,0 km/h (5 Bft) 93,48 %
11.01.2023 20:16 8,7 C 7,8 C 4,4 C 83 % 1013,3 hPa 0,0 l/m 0 min 0 min 0 W/m 25,7 km/h (4 Bft) 97,87 %
11.01.2023 20:18 8,7 C 7,8 C 4,4 C 83 % 1013,4 hPa 0,0 l/m 0 min 0 min 0 W/m 22,5 km/h (4 Bft) 97,87 %
11.01.2023 20:20 8,7 C 7,8 C 4,4 C 83 % 1013,3 hPa 0,0 l/m 0 min 0 min 0 W/m 25,7 km/h (4 Bft) 97,87 %
11.01.2023 20:22 8,7 C 7,8 C 4,4 C 83 % 1013,4 hPa 0,0 l/m 0 min 0 min 0 W/m 38,6 km/h (5 Bft) 97,87 %
11.01.2023 20:24 8,7 C 7,8 C 5,0 C 83 % 1013,3 hPa 0,0 l/m 0 min 0 min 0 W/m 41,8 km/h (6 Bft) 95,74 %
11.01.2023 20:26 8,7 C 8,3 C 5,0 C 83 % 1013,4 hPa 0,0 l/m 0 min 0 min 0 W/m 32,2 km/h (5 Bft) 95,65 %
11.01.2023 20:28 8,8 C 7,8 C 5,0 C 83 % 1013,4 hPa 0,0 l/m 0 min 0 min 0 W/m 22,5 km/h (4 Bft) 97,87 %
11.01.2023 20:30 8,8 C 7,8 C 5,0 C 83 % 1013,4 hPa 0,0 l/m 0 min 0 min 0 W/m 22,5 km/h (4 Bft) 100,00 %
11.01.2023 20:32 8,8 C 7,8 C 4,4 C 83 % 1013,3 hPa 0,0 l/m 0 min 0 min 0 W/m 19,3 km/h (3 Bft) 100,00 %
11.01.2023 20:34 8,8 C 7,8 C 4,4 C 83 % 1013,3 hPa 0,0 l/m 0 min 0 min 0 W/m 29,0 km/h (5 Bft) 100,00 %
11.01.2023 20:36 8,7 C 7,8 C 4,4 C 83 % 1013,3 hPa 0,0 l/m 0 min 0 min 0 W/m 29,0 km/h (5 Bft) 97,87 %
11.01.2023 20:38 8,7 C 7,8 C 4,4 C 83 % 1013,4 hPa 0,0 l/m 0 min 0 min 0 W/m 32,2 km/h (5 Bft) 95,74 %
11.01.2023 20:40 8,7 C 7,8 C 4,4 C 83 % 1013,4 hPa 0,0 l/m 0 min 0 min 0 W/m 29,0 km/h (5 Bft) 97,83 %
11.01.2023 20:42 8,8 C 7,8 C 4,4 C 83 % 1013,3 hPa 0,0 l/m 0 min 0 min 0 W/m 35,4 km/h (5 Bft) 93,62 %
11.01.2023 20:44 8,8 C 7,8 C 5,0 C 83 % 1013,3 hPa 0,0 l/m 0 min 0 min 0 W/m 41,8 km/h (6 Bft) 97,87 %
11.01.2023 20:46 8,8 C 7,8 C 5,0 C 83 % 1013,3 hPa 0,0 l/m 0 min 0 min 0 W/m 38,6 km/h (5 Bft) 97,87 %
11.01.2023 20:48 8,8 C 7,8 C 5,0 C 83 % 1013,3 hPa 0,0 l/m 0 min 0 min 0 W/m 38,6 km/h (5 Bft) 100,00 %
11.01.2023 20:50 8,8 C 7,8 C 5,0 C 83 % 1013,2 hPa 0,0 l/m 0 min 0 min 0 W/m 25,7 km/h (4 Bft) 97,87 %
11.01.2023 20:52 8,8 C 7,8 C 5,0 C 83 % 1013,2 hPa 0,0 l/m 0 min 0 min 0 W/m 35,4 km/h (5 Bft) 97,83 %
11.01.2023 20:54 8,8 C 7,8 C 5,0 C 83 % 1013,3 hPa 0,0 l/m 0 min 0 min 0 W/m 45,1 km/h (6 Bft) 97,87 %
11.01.2023 20:56 8,8 C 8,3 C 5,0 C 83 % 1013,2 hPa 0,0 l/m 0 min 0 min 0 W/m 41,8 km/h (6 Bft) 95,74 %
11.01.2023 20:58 8,9 C 8,3 C 5,0 C 83 % 1013,1 hPa 0,0 l/m 0 min 0 min 0 W/m 35,4 km/h (5 Bft) 97,87 %
11.01.2023 21:00 8,9 C 8,3 C 5,0 C 83 % 1013,2 hPa 0,0 l/m 0 min 0 min 0 W/m 41,8 km/h (6 Bft) 97,87 %
11.01.2023 21:02 8,9 C 8,3 C 5,0 C 83 % 1013,0 hPa 0,0 l/m 0 min 0 min 0 W/m 41,8 km/h (6 Bft) 97,87 %
11.01.2023 21:04 8,9 C 8,3 C 5,0 C 83 % 1013,1 hPa 0,0 l/m 0 min 0 min 0 W/m 38,6 km/h (5 Bft) 97,87 %
11.01.2023 21:06 8,9 C 8,3 C 5,0 C 83 % 1013,0 hPa 0,0 l/m 0 min 0 min 0 W/m 32,2 km/h (5 Bft) 97,83 %
11.01.2023 21:08 8,9 C 8,3 C 5,0 C 83 % 1013,0 hPa 0,0 l/m 0 min 0 min 0 W/m 45,1 km/h (6 Bft) 100,00 %
11.01.2023 21:10 8,9 C 7,8 C 5,0 C 83 % 1012,9 hPa 0,0 l/m 0 min 0 min 0 W/m 35,4 km/h (5 Bft) 100,00 %
11.01.2023 21:12 8,9 C 7,8 C 5,0 C 83 % 1012,9 hPa 0,0 l/m 0 min 0 min 0 W/m 32,2 km/h (5 Bft) 100,00 %
11.01.2023 21:14 8,9 C 8,3 C 5,0 C 83 % 1012,9 hPa 0,0 l/m 0 min 0 min 0 W/m 35,4 km/h (5 Bft) 97,87 %
11.01.2023 21:16 8,9 C 8,3 C 5,0 C 83 % 1012,8 hPa 0,0 l/m 0 min 0 min 0 W/m 41,8 km/h (6 Bft) 100,00 %
11.01.2023 21:18 8,9 C 8,3 C 5,0 C 83 % 1012,8 hPa 0,0 l/m 0 min 0 min 0 W/m 29,0 km/h (5 Bft) 100,00 %
11.01.2023 21:20 8,9 C 7,8 C 5,0 C 83 % 1012,8 hPa 0,0 l/m 0 min 0 min 0 W/m 19,3 km/h (3 Bft) 97,87 %
11.01.2023 21:22 8,9 C 8,3 C 5,0 C 83 % 1012,8 hPa 0,0 l/m 0 min 0 min 0 W/m 35,4 km/h (5 Bft) 100,00 %
11.01.2023 21:24 8,9 C 8,3 C 5,0 C 83 % 1012,6 hPa 0,0 l/m 0 min 0 min 0 W/m 38,6 km/h (5 Bft) 100,00 %
11.01.2023 21:26 8,9 C 8,3 C 5,0 C 83 % 1012,8 hPa 0,0 l/m 0 min 0 min 0 W/m 41,8 km/h (6 Bft) 100,00 %
11.01.2023 21:28 8,9 C 8,3 C 5,0 C 83 % 1012,7 hPa 0,0 l/m 0 min 0 min 0 W/m 32,2 km/h (5 Bft) 100,00 %
11.01.2023 21:30 8,9 C 8,3 C 5,0 C 83 % 1012,6 hPa 0,0 l/m 0 min 0 min 0 W/m 29,0 km/h (5 Bft) 100,00 %
11.01.2023 21:32 8,9 C 8,3 C 5,0 C 83 % 1012,6 hPa 0,0 l/m 0 min 0 min 0 W/m 35,4 km/h (5 Bft) 100,00 %
11.01.2023 21:34 8,9 C 8,3 C 5,0 C 83 % 1012,6 hPa 0,0 l/m 0 min 0 min 0 W/m 41,8 km/h (6 Bft) 100,00 %
11.01.2023 21:36 8,9 C 8,3 C 5,0 C 83 % 1012,6 hPa 0,0 l/m 0 min 0 min 0 W/m 22,5 km/h (4 Bft) 100,00 %
11.01.2023 21:38 8,9 C 8,3 C 5,0 C 83 % 1012,7 hPa 0,0 l/m 0 min 0 min 0 W/m 35,4 km/h (5 Bft) 100,00 %
11.01.2023 21:40 8,9 C 8,3 C 5,0 C 82 % 1012,7 hPa 0,0 l/m 0 min 0 min 0 W/m 32,2 km/h (5 Bft) 100,00 %
11.01.2023 21:42 8,9 C 8,3 C 5,0 C 82 % 1012,8 hPa 0,0 l/m 0 min 0 min 0 W/m 29,0 km/h (5 Bft) 100,00 %
11.01.2023 21:44 9,0 C 8,3 C 5,0 C 82 % 1012,6 hPa 0,0 l/m 0 min 0 min 0 W/m 41,8 km/h (6 Bft) 100,00 %
11.01.2023 21:46 9,0 C 8,3 C 5,0 C 82 % 1012,6 hPa 0,0 l/m 0 min 0 min 0 W/m 22,5 km/h (4 Bft) 100,00 %
11.01.2023 21:48 9,0 C 8,3 C 5,0 C 82 % 1012,6 hPa 0,0 l/m 0 min 0 min 0 W/m 38,6 km/h (5 Bft) 97,83 %
11.01.2023 21:50 9,0 C 8,3 C 5,0 C 82 % 1012,5 hPa 0,0 l/m 0 min 0 min 0 W/m 32,2 km/h (5 Bft) 100,00 %
11.01.2023 21:52 9,1 C 8,3 C 5,0 C 82 % 1012,5 hPa 0,0 l/m 0 min 0 min 0 W/m 35,4 km/h (5 Bft) 100,00 %
11.01.2023 21:54 9,1 C 8,3 C 5,0 C 82 % 1012,6 hPa 0,0 l/m 0 min 0 min 0 W/m 38,6 km/h (5 Bft) 100,00 %
11.01.2023 21:56 9,1 C 8,3 C 5,0 C 82 % 1012,7 hPa 0,0 l/m 0 min 0 min 0 W/m 35,4 km/h (5 Bft) 100,00 %
11.01.2023 21:58 9,1 C 8,3 C 5,0 C 82 % 1012,7 hPa 0,0 l/m 0 min 0 min 0 W/m 48,3 km/h (6 Bft) 100,00 %
11.01.2023 22:00 9,1 C 8,3 C 5,0 C 82 % 1012,6 hPa 0,0 l/m 0 min 2 min 0 W/m 32,2 km/h (5 Bft) 100,00 %
11.01.2023 22:02 9,2 C 8,3 C 4,4 C 82 % 1012,8 hPa 0,0 l/m 0 min 2 min 0 W/m 32,2 km/h (5 Bft) 100,00 %
11.01.2023 22:04 9,2 C 7,8 C 4,4 C 82 % 1012,7 hPa 0,0 l/m 0 min 2 min 0 W/m 45,1 km/h (6 Bft) 100,00 %
11.01.2023 22:06 9,2 C 7,8 C 4,4 C 83 % 1012,5 hPa 0,0 l/m 0 min 2 min 0 W/m 32,2 km/h (5 Bft) 100,00 %
11.01.2023 22:08 9,1 C 7,8 C 4,4 C 83 % 1012,5 hPa 0,0 l/m 0 min 2 min 0 W/m 32,2 km/h (5 Bft) 100,00 %
11.01.2023 22:10 9,1 C 7,8 C 4,4 C 83 % 1012,4 hPa 0,0 l/m 0 min 2 min 0 W/m 32,2 km/h (5 Bft) 100,00 %
11.01.2023 22:12 9,1 C 8,3 C 4,4 C 83 % 1012,3 hPa 0,0 l/m 0 min 2 min 0 W/m 48,3 km/h (6 Bft) 97,87 %
11.01.2023 22:14 9,2 C 8,3 C 4,4 C 83 % 1012,4 hPa 0,0 l/m 0 min 2 min 0 W/m 38,6 km/h (5 Bft) 100,00 %
11.01.2023 22:16 9,2 C 8,3 C 5,0 C 83 % 1012,5 hPa 0,0 l/m 0 min 2 min 0 W/m 41,8 km/h (6 Bft) 100,00 %
11.01.2023 22:18 9,2 C 8,3 C 5,0 C 83 % 1012,4 hPa 0,0 l/m 0 min 2 min 0 W/m 38,6 km/h (5 Bft) 95,74 %
11.01.2023 22:20 9,2 C 8,3 C 4,4 C 83 % 1012,5 hPa 0,0 l/m 0 min 2 min 0 W/m 48,3 km/h (6 Bft) 97,87 %
11.01.2023 22:22 9,2 C 7,8 C 4,4 C 83 % 1012,3 hPa 0,0 l/m 0 min 2 min 0 W/m 38,6 km/h (5 Bft) 95,74 %
11.01.2023 22:24 9,2 C 7,8 C 4,4 C 83 % 1012,2 hPa 0,0 l/m 0 min 2 min 0 W/m 29,0 km/h (5 Bft) 95,74 %
11.01.2023 22:26 9,2 C 8,3 C 4,4 C 83 % 1012,1 hPa 0,0 l/m 0 min 2 min 0 W/m 35,4 km/h (5 Bft) 93,62 %
11.01.2023 22:28 9,2 C 8,3 C 4,4 C 83 % 1012,4 hPa 0,0 l/m 0 min 0 min 0 W/m 35,4 km/h (5 Bft) 93,48 %
11.01.2023 22:30 9,2 C 8,3 C 4,4 C 83 % 1012,1 hPa 0,0 l/m 0 min 0 min 0 W/m 35,4 km/h (5 Bft) 95,74 %
11.01.2023 22:32 9,2 C 8,3 C 5,0 C 83 % 1012,3 hPa 0,0 l/m 0 min 0 min 0 W/m 45,1 km/h (6 Bft) 95,65 %
11.01.2023 22:34 9,2 C 8,3 C 5,0 C 83 % 1012,1 hPa 0,0 l/m 0 min 0 min 0 W/m 29,0 km/h (5 Bft) 93,62 %
11.01.2023 22:36 9,2 C 8,3 C 5,0 C 83 % 1012,1 hPa 0,0 l/m 0 min 0 min 0 W/m 29,0 km/h (5 Bft) 89,36 %
11.01.2023 22:38 9,2 C 8,3 C 5,0 C 83 % 1012,0 hPa 0,0 l/m 0 min 0 min 0 W/m 35,4 km/h (5 Bft) 93,62 %
11.01.2023 22:40 9,2 C 8,3 C 5,0 C 83 % 1012,1 hPa 0,0 l/m 0 min 0 min 0 W/m 54,7 km/h (7 Bft) 93,48 %
11.01.2023 22:42 9,2 C 8,3 C 5,0 C 83 % 1012,0 hPa 0,0 l/m 0 min 0 min 0 W/m 38,6 km/h (5 Bft) 91,49 %
11.01.2023 22:44 9,2 C 8,3 C 5,0 C 83 % 1012,3 hPa 0,0 l/m 0 min 2 min 0 W/m 57,9 km/h (7 Bft) 93,62 %
11.01.2023 22:46 9,3 C 8,3 C 5,0 C 83 % 1012,2 hPa 0,0 l/m 0 min 2 min 0 W/m 57,9 km/h (7 Bft) 91,49 %
11.01.2023 22:48 9,3 C 7,8 C 5,0 C 83 % 1012,2 hPa 0,0 l/m 0 min 2 min 0 W/m 38,6 km/h (5 Bft) 93,62 %
11.01.2023 22:50 9,3 C 7,8 C 4,4 C 84 % 1012,2 hPa 0,0 l/m 0 min 2 min 0 W/m 38,6 km/h (5 Bft) 93,62 %
11.01.2023 22:52 9,2 C 7,8 C 3,9 C 84 % 1012,5 hPa 0,0 l/m 0 min 2 min 0 W/m 48,3 km/h (6 Bft) 91,49 %
11.01.2023 22:54 9,2 C 7,8 C 3,9 C 84 % 1012,1 hPa 0,0 l/m 0 min 2 min 0 W/m 35,4 km/h (5 Bft) 91,30 %
11.01.2023 22:56 9,1 C 7,8 C 3,9 C 85 % 1012,2 hPa 0,0 l/m 0 min 2 min 0 W/m 48,3 km/h (6 Bft) 89,36 %
11.01.2023 22:58 9,1 C 7,8 C 3,9 C 85 % 1012,2 hPa 0,0 l/m 0 min 2 min 0 W/m 48,3 km/h (6 Bft) 93,62 %
11.01.2023 23:00 9,1 C 7,8 C 3,9 C 85 % 1012,2 hPa 0,0 l/m 0 min 2 min 0 W/m 41,8 km/h (6 Bft) 95,74 %
11.01.2023 23:02 9,1 C 7,8 C 3,9 C 85 % 1012,4 hPa 0,0 l/m 0 min 2 min 0 W/m 57,9 km/h (7 Bft) 91,49 %
11.01.2023 23:04 9,1 C 7,8 C 4,4 C 85 % 1012,3 hPa 0,0 l/m 0 min 2 min 0 W/m 35,4 km/h (5 Bft) 97,87 %
11.01.2023 23:06 9,1 C 7,8 C 4,4 C 85 % 1012,4 hPa 0,0 l/m 0 min 2 min 0 W/m 35,4 km/h (5 Bft) 89,66 %
11.01.2023 23:08 9,1 C 7,8 C 4,4 C 86 % 1012,5 hPa 0,0 l/m 0 min 2 min 0 W/m 22,5 km/h (4 Bft) 96,80 %
11.01.2023 23:10 9,1 C 7,8 C 4,4 C 86 % 1012,3 hPa 0,0 l/m 0 min 2 min 0 W/m 25,7 km/h (4 Bft) 97,37 %
11.01.2023 23:12 9,0 C 7,8 C 3,9 C 86 % 1012,4 hPa 0,0 l/m 0 min 2 min 0 W/m 22,5 km/h (4 Bft) 100,00 %
11.01.2023 23:14 8,9 C 7,8 C 3,9 C 87 % 1012,4 hPa 0,0 l/m 0 min 2 min 0 W/m 25,7 km/h (4 Bft) 97,87 %
11.01.2023 23:16 8,9 C 7,8 C 3,9 C 87 % 1012,4 hPa 0,0 l/m 0 min 2 min 0 W/m 22,5 km/h (4 Bft) 100,00 %
11.01.2023 23:18 8,8 C 7,2 C 3,9 C 87 % 1012,4 hPa 0,2 l/m 0 min 2 min 0 W/m 29,0 km/h (5 Bft) 100,00 %
11.01.2023 23:20 8,8 C 7,2 C 3,3 C 88 % 1012,5 hPa 0,0 l/m 0 min 2 min 0 W/m 29,0 km/h (5 Bft) 100,00 %
11.01.2023 23:22 8,7 C 7,2 C 3,3 C 88 % 1012,5 hPa 0,0 l/m 0 min 2 min 0 W/m 25,7 km/h (4 Bft) 97,87 %
11.01.2023 23:24 8,7 C 7,2 C 3,3 C 89 % 1012,5 hPa 0,2 l/m 0 min 2 min 0 W/m 32,2 km/h (5 Bft) 97,87 %
11.01.2023 23:26 8,6 C 7,2 C 3,3 C 89 % 1012,4 hPa 0,0 l/m 0 min 2 min 0 W/m 22,5 km/h (4 Bft) 100,00 %
11.01.2023 23:28 8,6 C 7,2 C 3,3 C 89 % 1012,3 hPa 0,0 l/m 0 min 2 min 0 W/m 19,3 km/h (3 Bft) 100,00 %
11.01.2023 23:30 8,6 C 7,2 C 3,3 C 89 % 1012,5 hPa 0,0 l/m 0 min 2 min 0 W/m 16,1 km/h (3 Bft) 97,87 %
11.01.2023 23:32 8,5 C 7,2 C 3,3 C 90 % 1012,4 hPa 0,0 l/m 0 min 2 min 0 W/m 25,7 km/h (4 Bft) 100,00 %
11.01.2023 23:34 8,4 C 7,2 C 3,3 C 90 % 1012,4 hPa 0,0 l/m 0 min 2 min 0 W/m 19,3 km/h (3 Bft) 100,00 %
11.01.2023 23:36 8,4 C 7,2 C 3,3 C 90 % 1012,3 hPa 0,0 l/m 0 min 2 min 0 W/m 22,5 km/h (4 Bft) 100,00 %
11.01.2023 23:38 8,4 C 7,2 C 3,3 C 90 % 1012,3 hPa 0,0 l/m 0 min 2 min 0 W/m 19,3 km/h (3 Bft) 97,87 %
11.01.2023 23:40 8,4 C 7,2 C 3,3 C 91 % 1012,3 hPa 0,0 l/m 0 min 2 min 0 W/m 25,7 km/h (4 Bft) 97,87 %
11.01.2023 23:42 8,3 C 7,2 C 3,3 C 91 % 1012,2 hPa 0,0 l/m 0 min 2 min 0 W/m 29,0 km/h (5 Bft) 100,00 %
11.01.2023 23:44 8,3 C 7,2 C 3,3 C 91 % 1012,3 hPa 0,0 l/m 0 min 2 min 0 W/m 22,5 km/h (4 Bft) 100,00 %
11.01.2023 23:46 8,3 C 7,2 C 3,3 C 91 % 1012,3 hPa 0,2 l/m 0 min 2 min 0 W/m 29,0 km/h (5 Bft) 100,00 %
11.01.2023 23:48 8,3 C 7,2 C 3,3 C 91 % 1012,3 hPa 0,0 l/m 0 min 2 min 0 W/m 35,4 km/h (5 Bft) 97,87 %
11.01.2023 23:50 8,3 C 7,2 C 3,3 C 91 % 1012,2 hPa 0,0 l/m 0 min 2 min 0 W/m 29,0 km/h (5 Bft) 100,00 %
11.01.2023 23:52 8,3 C 7,2 C 3,3 C 91 % 1012,2 hPa 0,0 l/m 0 min 2 min 0 W/m 19,3 km/h (3 Bft) 100,00 %
11.01.2023 23:54 8,3 C 7,2 C 3,3 C 91 % 1012,2 hPa 0,0 l/m 0 min 2 min 0 W/m 25,7 km/h (4 Bft) 97,87 %
11.01.2023 23:56 8,3 C 7,2 C 3,3 C 92 % 1012,2 hPa 0,0 l/m 0 min 2 min 0 W/m 29,0 km/h (5 Bft) 100,00 %
11.01.2023 23:58 8,3 C 7,2 C 3,3 C 92 % 1012,1 hPa 0,0 l/m 0 min 2 min 0 W/m 25,7 km/h (4 Bft) 100,00 %
_ Min-Zeit 00:00 00:00 23:20 15:52 05:40 - - - - 08:38 01:20
Minimum _ 7,3 C 6,7 C 3,3 C 78 % 1008,0 hPa - - - - 3,2 km/h (1 Bft) 47,37 %
_ Max-Zeit 13:24 13:06 03:58 00:12 18:12 04:26 11:54 06:08 13:04 17:10 00:08
Maximum _ 11,3 C 16,7 C 7,2 C 97 % 1014,1 hPa 0,2 l/m 2 min 4 min 338 W/m 57,9 km/h
S (7 Bft)
100,00 %
Durchschnitt _ 9,8 C 9,3 C 5,7 C 89 % 1011,1 hPa #4,2 l/m #2:18 h #5:36 h 98 W/m 20,5 km/h (4 Bft) 97,12 %
© 2023 W. Hausmann